| time (UTC) | temp F | wind direction | speed knots | gust knots | rain 1hr in | rain 24hr in | rain mn in | humidity % | barometer mb |
| 20260506152203 | 61 | 162 | 2.6 | 8.7 | 0.00 | 0.00 | 0.00 | 87 | 1014.3 |
| 20260506152104 | 61 | 232 | 2.6 | 8.7 | 0.00 | 0.00 | 0.00 | 87 | 1014.2 |
| 20260506152004 | 61 | 168 | 1.7 | 8.7 | 0.00 | 0.00 | 0.00 | 86 | 1014.3 |
| 20260506151903 | 61 | 172 | 1.7 | 8.7 | 0.00 | 0.00 | 0.00 | 86 | 1014.3 |
| 20260506151805 | 61 | 173 | 1.7 | 8.7 | 0.00 | 0.00 | 0.00 | 86 | 1014.4 |
| 20260506151704 | 61 | 150 | 0.9 | 6.1 | 0.00 | 0.00 | 0.00 | 86 | 1014.2 |
| 20260506151600 | 61 | 298 | 0.9 | 5.2 | 0.00 | 0.00 | 0.00 | 87 | 1014.3 |
| 20260506151500 | 61 | 173 | 0.9 | 4.3 | 0.00 | 0.00 | 0.00 | 87 | 1014.3 |
| 20260506151359 | 61 | 186 | 0.9 | 4.3 | 0.00 | 0.00 | 0.00 | 87 | 1014.2 |
| 20260506151301 | 61 | 197 | 0.9 | 4.3 | 0.00 | 0.00 | 0.00 | 87 | 1014.1 |
| 20260506151200 | 61 | 155 | 0.9 | 5.2 | 0.00 | 0.00 | 0.00 | 86 | 1014.2 |
| 20260506151059 | 61 | 155 | 0.9 | 5.2 | 0.00 | 0.00 | 0.00 | 86 | 1014.0 |
| 20260506151000 | 61 | 155 | 1.7 | 5.2 | 0.00 | 0.00 | 0.00 | 86 | 1013.7 |
| 20260506150900 | 61 | 155 | 1.7 | 5.2 | 0.00 | 0.00 | 0.00 | 86 | 1013.5 |
| 20260506150759 | 61 | 148 | 1.7 | 5.2 | 0.00 | 0.00 | 0.00 | 86 | 1013.5 |
| 20260506150701 | 61 | 140 | 1.7 | 6.1 | 0.00 | 0.00 | 0.00 | 86 | 1013.3 |
| 20260506150600 | 61 | 140 | 1.7 | 6.1 | 0.00 | 0.00 | 0.00 | 86 | 1013.4 |
| 20260506150500 | 61 | 140 | 2.6 | 6.1 | 0.00 | 0.00 | 0.00 | 86 | 1013.4 |
| 20260506150401 | 61 | 140 | 2.6 | 6.1 | 0.00 | 0.00 | 0.00 | 86 | 1013.3 |
| 20260506150303 | 61 | 138 | 2.6 | 6.1 | 0.00 | 0.00 | 0.00 | 86 | 1013.3 |
| 20260506150200 | 61 | 153 | 2.6 | 6.1 | 0.00 | 0.00 | 0.00 | 86 | 1013.3 |
| 20260506150100 | 61 | 154 | 2.6 | 6.1 | 0.00 | 0.00 | 0.00 | 86 | 1013.3 |
| 20260506150001 | 61 | 153 | 2.6 | 6.1 | 0.00 | 0.00 | 0.00 | 87 | 1013.3 |
| 20260506145901 | 61 | 136 | 2.6 | 6.1 | 0.00 | 0.00 | 0.00 | 87 | 1013.3 |
| 20260506145759 | 61 | 174 | 2.6 | 6.1 | 0.00 | 0.00 | 0.00 | 87 | 1013.4 |
| 20260506145659 | 61 | 154 | 2.6 | 6.1 | 0.00 | 0.00 | 0.00 | 87 | 1013.4 |
| 20260506145600 | 61 | 178 | 2.6 | 6.1 | 0.00 | 0.00 | 0.00 | 87 | 1013.3 |
| 20260506145501 | 61 | 144 | 1.7 | 5.2 | 0.00 | 0.00 | 0.00 | 87 | 1013.3 |
| 20260506145400 | 61 | 136 | 1.7 | 4.3 | 0.00 | 0.00 | 0.00 | 87 | 1013.3 |
| 20260506145259 | 60 | 134 | 1.7 | 4.3 | 0.00 | 0.00 | 0.00 | 87 | 1013.2 |
| 20260506145159 | 60 | 134 | 1.7 | 4.3 | 0.00 | 0.00 | 0.00 | 88 | 1013.2 |
| 20260506145100 | 60 | 134 | 1.7 | 4.3 | 0.00 | 0.00 | 0.00 | 87 | 1013.2 |
| 20260506144952 | 60 | 129 | 1.7 | 4.3 | 0.00 | 0.00 | 0.00 | 87 | 1013.3 |
| 20260506144852 | 60 | 137 | 1.7 | 4.3 | 0.00 | 0.00 | 0.00 | 87 | 1013.3 |
| 20260506144752 | 60 | 144 | 1.7 | 4.3 | 0.00 | 0.00 | 0.00 | 87 | 1013.4 |
| 20260506144651 | 60 | 173 | 1.7 | 4.3 | 0.00 | 0.00 | 0.00 | 87 | 1013.4 |
| 20260506144553 | 60 | 122 | 1.7 | 3.5 | 0.00 | 0.00 | 0.00 | 87 | 1013.4 |
| 20260506144453 | 60 | 122 | 1.7 | 4.3 | 0.00 | 0.00 | 0.00 | 87 | 1013.4 |
| 20260506144351 | 60 | 122 | 1.7 | 4.3 | 0.00 | 0.00 | 0.00 | 87 | 1013.4 |
| 20260506144252 | 60 | 115 | 1.7 | 4.3 | 0.00 | 0.00 | 0.00 | 87 | 1013.4 |
| 20260506144151 | 60 | 120 | 1.7 | 4.3 | 0.00 | 0.00 | 0.00 | 87 | 1013.5 |
| 20260506144052 | 60 | 118 | 1.7 | 4.3 | 0.00 | 0.00 | 0.00 | 87 | 1013.5 |
| 20260506143951 | 60 | 119 | 1.7 | 4.3 | 0.00 | 0.00 | 0.00 | 86 | 1013.4 |
| 20260506143852 | 60 | 138 | 0.9 | 4.3 | 0.00 | 0.00 | 0.00 | 86 | 1013.4 |
| 20260506143751 | 60 | 138 | 0.9 | 4.3 | 0.00 | 0.00 | 0.00 | 86 | 1013.5 |
| 20260506143652 | 60 | 131 | 1.7 | 4.3 | 0.00 | 0.00 | 0.00 | 86 | 1013.7 |
| 20260506143552 | 60 | 130 | 1.7 | 4.3 | 0.00 | 0.00 | 0.00 | 86 | 1013.5 |
| 20260506143452 | 60 | 144 | 1.7 | 4.3 | 0.00 | 0.00 | 0.00 | 86 | 1013.7 |
| 20260506143352 | 60 | 144 | 1.7 | 4.3 | 0.00 | 0.00 | 0.00 | 86 | 1013.5 |
| 20260506143252 | 60 | 101 | 1.7 | 4.3 | 0.00 | 0.00 | 0.00 | 85 | 1013.5 |
| 20260506143151 | 60 | 99 | 1.7 | 4.3 | 0.00 | 0.00 | 0.00 | 85 | 1013.4 |
| 20260506143051 | 60 | 88 | 1.7 | 4.3 | 0.00 | 0.00 | 0.00 | 85 | 1013.5 |
| 20260506142951 | 60 | 14 | 1.7 | 4.3 | 0.00 | 0.00 | 0.00 | 85 | 1013.5 |
| 20260506142853 | 60 | 175 | 2.6 | 4.3 | 0.00 | 0.00 | 0.00 | 85 | 1013.4 |
| 20260506142751 | 60 | 175 | 2.6 | 5.2 | 0.00 | 0.00 | 0.00 | 85 | 1013.5 |
| 20260506142652 | 60 | 156 | 2.6 | 5.2 | 0.00 | 0.00 | 0.00 | 85 | 1013.4 |
| 20260506142551 | 60 | 131 | 2.6 | 6.1 | 0.00 | 0.00 | 0.00 | 85 | 1013.4 |
| 20260506142452 | 60 | 132 | 2.6 | 6.1 | 0.00 | 0.00 | 0.00 | 85 | 1013.4 |
| 20260506142352 | 60 | 144 | 2.6 | 6.1 | 0.00 | 0.00 | 0.00 | 85 | 1013.5 |
| 20260506142251 | 60 | 109 | 2.6 | 6.1 | 0.00 | 0.00 | 0.00 | 85 | 1013.5 |
| 20260506142151 | 60 | 138 | 2.6 | 6.1 | 0.00 | 0.00 | 0.00 | 85 | 1013.5 |
| 20260506142053 | 60 | 136 | 2.6 | 6.1 | 0.00 | 0.00 | 0.00 | 86 | 1013.5 |
| 20260506141952 | 60 | 164 | 2.6 | 6.1 | 0.00 | 0.00 | 0.00 | 85 | 1013.4 |
| 20260506141851 | 60 | 112 | 1.7 | 6.1 | 0.00 | 0.00 | 0.00 | 86 | 1013.5 |
| 20260506141752 | 60 | 142 | 1.7 | 6.1 | 0.00 | 0.00 | 0.00 | 86 | 1013.4 |
| 20260506141647 | 60 | 142 | 1.7 | 6.1 | 0.00 | 0.00 | 0.00 | 86 | 1013.5 |
| 20260506141547 | 60 | 130 | 1.7 | 6.1 | 0.00 | 0.00 | 0.00 | 86 | 1013.4 |
| 20260506141447 | 60 | 123 | 1.7 | 3.5 | 0.00 | 0.00 | 0.00 | 86 | 1013.4 |
| 20260506141347 | 60 | 192 | 1.7 | 3.5 | 0.00 | 0.00 | 0.00 | 86 | 1013.4 |
| 20260506141247 | 60 | 194 | 0.9 | 3.5 | 0.00 | 0.00 | 0.00 | 86 | 1013.4 |
| 20260506141149 | 60 | 146 | 0.9 | 3.5 | 0.00 | 0.00 | 0.00 | 86 | 1013.3 |
| 20260506141047 | 60 | 94 | 0.9 | 3.5 | 0.00 | 0.00 | 0.00 | 86 | 1013.3 |
| 20260506140948 | 60 | 162 | 0.9 | 3.5 | 0.00 | 0.00 | 0.00 | 86 | 1013.4 |
| 20260506140847 | 60 | 162 | 0.9 | 3.5 | 0.00 | 0.00 | 0.00 | 86 | 1013.4 |
| 20260506140747 | 60 | 163 | 0.9 | 3.5 | 0.00 | 0.00 | 0.00 | 86 | 1013.3 |
| 20260506140647 | 60 | 163 | 0.9 | 3.5 | 0.00 | 0.00 | 0.00 | 86 | 1013.3 |
| 20260506140547 | 60 | 165 | 0.9 | 3.5 | 0.00 | 0.00 | 0.00 | 86 | 1013.2 |
| 20260506140447 | 60 | 85 | 0.9 | 3.5 | 0.00 | 0.00 | 0.00 | 86 | 1013.2 |
| 20260506140347 | 60 | 58 | 0.9 | 2.6 | 0.00 | 0.00 | 0.00 | 86 | 1013.4 |
| 20260506140248 | 60 | 58 | 0.9 | 2.6 | 0.00 | 0.00 | 0.00 | 86 | 1013.3 |
| 20260506140147 | 60 | 58 | 0.9 | 2.6 | 0.00 | 0.00 | 0.00 | 86 | 1013.3 |
| 20260506140047 | 60 | 58 | 0.9 | 2.6 | 0.00 | 0.00 | 0.00 | 86 | 1013.3 |
| 20260506135947 | 60 | 58 | 0.9 | 2.6 | 0.00 | 0.00 | 0.00 | 86 | 1013.3 |
| 20260506135847 | 60 | 58 | 0.9 | 2.6 | 0.00 | 0.00 | 0.00 | 86 | 1013.4 |
| 20260506135747 | 60 | 0 | 0.9 | 1.7 | 0.00 | 0.00 | 0.00 | 86 | 1013.5 |
| 20260506135647 | 60 | 0 | 0.9 | 2.6 | 0.00 | 0.00 | 0.00 | 86 | 1013.4 |
| 20260506135548 | 60 | 0 | 0.9 | 2.6 | 0.00 | 0.00 | 0.00 | 86 | 1013.4 |
| 20260506135447 | 60 | 355 | 0.9 | 2.6 | 0.00 | 0.00 | 0.00 | 86 | 1013.4 |
| 20260506135347 | 60 | 355 | 0.9 | 3.5 | 0.00 | 0.00 | 0.00 | 86 | 1013.5 |
| 20260506135248 | 60 | 355 | 0.9 | 3.5 | 0.00 | 0.00 | 0.00 | 86 | 1013.5 |
| 20260506135149 | 60 | 346 | 0.9 | 3.5 | 0.00 | 0.00 | 0.00 | 85 | 1013.7 |
| 20260506135048 | 60 | 346 | 0.9 | 3.5 | 0.00 | 0.00 | 0.00 | 85 | 1013.7 |
| 20260506134947 | 60 | 346 | 0.9 | 3.5 | 0.00 | 0.00 | 0.00 | 85 | 1013.7 |
| 20260506134848 | 60 | 346 | 0.9 | 3.5 | 0.00 | 0.00 | 0.00 | 85 | 1013.8 |
| 20260506134748 | 60 | 346 | 0.9 | 3.5 | 0.00 | 0.00 | 0.00 | 86 | 1013.7 |
| 20260506134647 | 60 | 346 | 0.9 | 4.3 | 0.00 | 0.00 | 0.00 | 86 | 1013.7 |
| 20260506134548 | 60 | 303 | 0.9 | 4.3 | 0.00 | 0.00 | 0.00 | 86 | 1013.7 |
| 20260506134448 | 60 | 240 | 0.9 | 4.3 | 0.00 | 0.00 | 0.00 | 86 | 1013.5 |
| 20260506134343 | 60 | 21 | 1.7 | 4.3 | 0.00 | 0.00 | 0.00 | 86 | 1013.4 |
| 20260506134244 | 60 | 94 | 1.7 | 4.3 | 0.00 | 0.00 | 0.00 | 85 | 1013.4 |
| 20260506134143 | 60 | 94 | 1.7 | 4.3 | 0.00 | 0.00 | 0.00 | 85 | 1013.5 |
| 20260506134045 | 60 | 136 | 1.7 | 4.3 | 0.00 | 0.00 | 0.00 | 85 | 1013.5 |
| 20260506133944 | 60 | 137 | 1.7 | 4.3 | 0.00 | 0.00 | 0.00 | 85 | 1013.4 |
| 20260506133844 | 60 | 137 | 1.7 | 4.3 | 0.00 | 0.00 | 0.00 | 85 | 1013.4 |
| 20260506133743 | 60 | 137 | 1.7 | 4.3 | 0.00 | 0.00 | 0.00 | 85 | 1013.3 |
| 20260506133643 | 60 | 145 | 1.7 | 4.3 | 0.00 | 0.00 | 0.00 | 85 | 1013.2 |
| 20260506133543 | 60 | 138 | 1.7 | 4.3 | 0.00 | 0.00 | 0.00 | 85 | 1013.3 |
| 20260506133444 | 60 | 132 | 1.7 | 4.3 | 0.00 | 0.00 | 0.00 | 85 | 1013.2 |
| 20260506133343 | 60 | 133 | 1.7 | 4.3 | 0.00 | 0.00 | 0.00 | 85 | 1013.3 |
| 20260506133244 | 60 | 129 | 1.7 | 4.3 | 0.00 | 0.00 | 0.00 | 85 | 1013.3 |
| 20260506133137 | 60 | 127 | 1.7 | 4.3 | 0.00 | 0.00 | 0.00 | 84 | 1013.4 |
| 20260506133036 | 60 | 126 | 1.7 | 4.3 | 0.00 | 0.00 | 0.00 | 84 | 1013.3 |
| 20260506132934 | 60 | 208 | 1.7 | 4.3 | 0.00 | 0.00 | 0.00 | 85 | 1013.4 |
| 20260506132835 | 60 | 153 | 1.7 | 4.3 | 0.00 | 0.00 | 0.00 | 85 | 1013.2 |
| 20260506132733 | 60 | 140 | 1.7 | 5.2 | 0.00 | 0.00 | 0.00 | 85 | 1013.3 |
| 20260506132630 | 60 | 115 | 1.7 | 5.2 | 0.00 | 0.00 | 0.00 | 85 | 1013.3 |
| 20260506132527 | 60 | 151 | 1.7 | 5.2 | 0.00 | 0.00 | 0.00 | 85 | 1013.2 |
| 20260506132427 | 60 | 160 | 1.7 | 5.2 | 0.00 | 0.00 | 0.00 | 85 | 1013.3 |
| 20260506132329 | 60 | 160 | 1.7 | 5.2 | 0.00 | 0.00 | 0.00 | 85 | 1013.1 |
| 20260506132229 | 60 | 172 | 1.7 | 5.2 | 0.00 | 0.00 | 0.00 | 85 | 1013.2 |
| 20260506132123 | 60 | 178 | 1.7 | 5.2 | 0.00 | 0.00 | 0.00 | 85 | 1013.2 |
| 20260506132023 | 60 | 130 | 1.7 | 5.2 | 0.00 | 0.00 | 0.00 | 85 | 1013.2 |
| 20260506131922 | 60 | 130 | 1.7 | 5.2 | 0.00 | 0.00 | 0.00 | 85 | 1013.3 |
| 20260506131821 | 60 | 146 | 1.7 | 5.2 | 0.00 | 0.00 | 0.00 | 85 | 1013.3 |
| 20260506131722 | 60 | 165 | 0.9 | 5.2 | 0.00 | 0.00 | 0.00 | 85 | 1013.3 |
| 20260506131613 | 60 | 178 | 1.7 | 5.2 | 0.00 | 0.00 | 0.00 | 85 | 1013.4 |
| 20260506131511 | 60 | 176 | 1.7 | 5.2 | 0.00 | 0.00 | 0.00 | 85 | 1013.3 |
| 20260506131412 | 60 | 178 | 1.7 | 5.2 | 0.00 | 0.00 | 0.00 | 85 | 1013.4 |
| 20260506131312 | 60 | 179 | 1.7 | 5.2 | 0.00 | 0.00 | 0.00 | 85 | 1013.5 |
| 20260506131211 | 60 | 181 | 1.7 | 5.2 | 0.00 | 0.00 | 0.00 | 85 | 1013.5 |
| 20260506131105 | 60 | 271 | 1.7 | 5.2 | 0.00 | 0.00 | 0.00 | 85 | 1013.3 |
| 20260506131006 | 60 | 138 | 1.7 | 5.2 | 0.00 | 0.00 | 0.00 | 85 | 1013.4 |
| 20260506130906 | 60 | 70 | 1.7 | 5.2 | 0.00 | 0.00 | 0.00 | 86 | 1013.4 |
| 20260506130807 | 60 | 272 | 1.7 | 5.2 | 0.00 | 0.00 | 0.00 | 86 | 1013.3 |
| 20260506130705 | 60 | 271 | 1.7 | 5.2 | 0.00 | 0.00 | 0.00 | 86 | 1013.3 |
| 20260506130603 | 59 | 142 | 1.7 | 5.2 | 0.00 | 0.00 | 0.00 | 86 | 1013.3 |
| 20260506130459 | 59 | 142 | 1.7 | 5.2 | 0.00 | 0.00 | 0.00 | 86 | 1013.4 |
| 20260506130400 | 59 | 140 | 1.7 | 5.2 | 0.00 | 0.00 | 0.00 | 86 | 1013.3 |
| 20260506130259 | 59 | 136 | 2.6 | 6.1 | 0.00 | 0.00 | 0.00 | 86 | 1013.4 |
| 20260506130200 | 59 | 165 | 2.6 | 6.1 | 0.00 | 0.00 | 0.00 | 86 | 1013.4 |
| 20260506130053 | 59 | 165 | 2.6 | 6.1 | 0.00 | 0.00 | 0.00 | 86 | 1013.4 |
| 20260506125949 | 59 | 127 | 2.6 | 6.1 | 0.00 | 0.00 | 0.00 | 86 | 1013.7 |
| 20260506125850 | 59 | 298 | 2.6 | 7.8 | 0.00 | 0.00 | 0.00 | 86 | 1013.7 |
| 20260506125749 | 59 | 294 | 2.6 | 7.8 | 0.00 | 0.00 | 0.00 | 86 | 1013.7 |
| 20260506125649 | 59 | 170 | 3.5 | 7.8 | 0.00 | 0.00 | 0.00 | 86 | 1013.4 |
| 20260506125543 | 59 | 171 | 3.5 | 7.8 | 0.00 | 0.00 | 0.00 | 87 | 1013.4 |
| 20260506125442 | 59 | 138 | 3.5 | 7.8 | 0.00 | 0.00 | 0.00 | 87 | 1013.4 |
| 20260506125343 | 59 | 175 | 2.6 | 7.8 | 0.00 | 0.00 | 0.00 | 87 | 1013.4 |
| 20260506125244 | 59 | 123 | 2.6 | 7.8 | 0.00 | 0.00 | 0.00 | 87 | 1013.4 |
| 20260506125143 | 59 | 161 | 2.6 | 7.8 | 0.00 | 0.00 | 0.00 | 87 | 1013.4 |
| 20260506125040 | 59 | 166 | 2.6 | 7.8 | 0.00 | 0.00 | 0.00 | 87 | 1013.4 |
| 20260506124937 | 59 | 158 | 2.6 | 7.8 | 0.00 | 0.00 | 0.00 | 87 | 1013.3 |
| 20260506124839 | 59 | 120 | 1.7 | 7.0 | 0.00 | 0.00 | 0.00 | 87 | 1013.4 |
| 20260506124736 | 58 | 157 | 1.7 | 6.1 | 0.00 | 0.00 | 0.00 | 88 | 1013.4 |
| 20260506124637 | 58 | 159 | 1.7 | 6.1 | 0.00 | 0.00 | 0.00 | 88 | 1013.4 |
| 20260506124530 | 58 | 146 | 1.7 | 6.1 | 0.00 | 0.00 | 0.00 | 88 | 1013.4 |
| 20260506124427 | 58 | 179 | 1.7 | 6.1 | 0.00 | 0.00 | 0.00 | 88 | 1013.5 |
| 20260506124329 | 58 | 148 | 1.7 | 5.2 | 0.00 | 0.00 | 0.00 | 88 | 1013.4 |
| 20260506124228 | 58 | 126 | 1.7 | 5.2 | 0.00 | 0.00 | 0.00 | 88 | 1013.3 |
| 20260506124128 | 58 | 144 | 1.7 | 5.2 | 0.00 | 0.00 | 0.00 | 88 | 1013.5 |
| 20260506124022 | 58 | 145 | 1.7 | 7.0 | 0.00 | 0.00 | 0.00 | 88 | 1013.5 |
| 20260506123922 | 58 | 128 | 1.7 | 7.0 | 0.00 | 0.00 | 0.00 | 88 | 1013.3 |
| 20260506123822 | 58 | 96 | 2.6 | 7.0 | 0.00 | 0.00 | 0.00 | 88 | 1013.2 |
| 20260506123722 | 58 | 121 | 2.6 | 7.0 | 0.00 | 0.00 | 0.00 | 88 | 1013.3 |
| 20260506123622 | 58 | 87 | 1.7 | 7.0 | 0.00 | 0.00 | 0.00 | 88 | 1013.2 |
| 20260506123521 | 58 | 157 | 2.6 | 7.0 | 0.00 | 0.00 | 0.00 | 88 | 1013.2 |
| 20260506123420 | 58 | 122 | 2.6 | 7.0 | 0.00 | 0.00 | 0.00 | 88 | 1013.2 |
| 20260506123319 | 58 | 122 | 2.6 | 7.0 | 0.00 | 0.00 | 0.00 | 88 | 1013.2 |
| 20260506123219 | 58 | 122 | 2.6 | 7.0 | 0.00 | 0.00 | 0.00 | 88 | 1013.1 |
| 20260506123116 | 58 | 121 | 2.6 | 7.0 | 0.00 | 0.00 | 0.00 | 88 | 1013.0 |
| 20260506123006 | 58 | 155 | 2.6 | 7.0 | 0.00 | 0.00 | 0.00 | 89 | 1013.0 |
| 20260506122906 | 58 | 147 | 2.6 | 7.0 | 0.00 | 0.00 | 0.00 | 89 | 1012.9 |
| 20260506122807 | 57 | 180 | 2.6 | 7.0 | 0.00 | 0.00 | 0.00 | 89 | 1012.9 |
| 20260506122705 | 57 | 144 | 2.6 | 7.0 | 0.00 | 0.00 | 0.00 | 89 | 1013.0 |
| 20260506122605 | 57 | 141 | 2.6 | 8.7 | 0.00 | 0.00 | 0.00 | 89 | 1013.1 |
| 20260506122500 | 57 | 140 | 2.6 | 8.7 | 0.00 | 0.00 | 0.00 | 89 | 1013.1 |
| 20260506122359 | 57 | 177 | 2.6 | 8.7 | 0.00 | 0.00 | 0.00 | 89 | 1013.1 |
| 20260506122301 | 57 | 148 | 2.6 | 8.7 | 0.00 | 0.00 | 0.00 | 89 | 1013.2 |
| 20260506122159 | 57 | 178 | 2.6 | 8.7 | 0.00 | 0.00 | 0.00 | 89 | 1013.1 |
| 20260506122059 | 57 | 154 | 3.5 | 8.7 | 0.00 | 0.00 | 0.00 | 89 | 1013.1 |
| 20260506121959 | 57 | 159 | 3.5 | 8.7 | 0.00 | 0.00 | 0.00 | 89 | 1013.1 |
| 20260506121859 | 57 | 150 | 3.5 | 8.7 | 0.00 | 0.00 | 0.00 | 89 | 1013.1 |
| 20260506121758 | 57 | 153 | 3.5 | 8.7 | 0.00 | 0.00 | 0.00 | 89 | 1013.0 |
| 20260506121654 | 57 | 163 | 3.5 | 8.7 | 0.00 | 0.00 | 0.00 | 89 | 1013.0 |
| 20260506121553 | 57 | 182 | 3.5 | 7.8 | 0.00 | 0.00 | 0.00 | 89 | 1012.9 |
| 20260506121449 | 57 | 157 | 3.5 | 7.8 | 0.00 | 0.00 | 0.00 | 89 | 1012.8 |
| 20260506121348 | 57 | 119 | 3.5 | 7.8 | 0.00 | 0.00 | 0.00 | 89 | 1012.8 |
| 20260506121248 | 57 | 161 | 3.5 | 7.8 | 0.00 | 0.00 | 0.00 | 89 | 1012.9 |
| 20260506121147 | 57 | 150 | 3.5 | 7.0 | 0.00 | 0.00 | 0.00 | 89 | 1012.9 |
| 20260506121046 | 57 | 150 | 3.5 | 7.0 | 0.00 | 0.00 | 0.00 | 89 | 1013.0 |
| 20260506120948 | 57 | 158 | 3.5 | 7.0 | 0.00 | 0.00 | 0.00 | 89 | 1013.0 |
| 20260506120846 | 57 | 121 | 3.5 | 7.0 | 0.00 | 0.00 | 0.00 | 89 | 1012.9 |
| 20260506120745 | 57 | 132 | 3.5 | 7.0 | 0.00 | 0.00 | 0.00 | 89 | 1013.1 |
| 20260506120645 | 57 | 167 | 3.5 | 7.0 | 0.00 | 0.00 | 0.00 | 89 | 1013.0 |
| 20260506120546 | 57 | 142 | 3.5 | 7.0 | 0.00 | 0.00 | 0.00 | 89 | 1013.1 |
| 20260506120445 | 57 | 170 | 3.5 | 7.0 | 0.00 | 0.00 | 0.00 | 89 | 1013.3 |
| 20260506120344 | 57 | 137 | 3.5 | 7.0 | 0.00 | 0.00 | 0.00 | 89 | 1013.2 |
| 20260506120246 | 57 | 144 | 3.5 | 7.0 | 0.00 | 0.00 | 0.00 | 89 | 1013.3 |
| 20260506120145 | 57 | 139 | 4.3 | 7.0 | 0.00 | 0.00 | 0.00 | 89 | 1013.2 |
| 20260506120045 | 56 | 94 | 4.3 | 7.0 | 0.00 | 0.00 | 0.00 | 89 | 1013.2 |
| 20260506115946 | 56 | 142 | 4.3 | 7.8 | 0.00 | 0.00 | 0.00 | 89 | 1013.2 |
| 20260506115845 | 57 | 144 | 4.3 | 7.8 | 0.00 | 0.00 | 0.00 | 89 | 1013.2 |
| 20260506115747 | 56 | 138 | 4.3 | 7.8 | 0.00 | 0.00 | 0.00 | 89 | 1013.2 |
| 20260506115645 | 56 | 126 | 4.3 | 7.8 | 0.00 | 0.00 | 0.00 | 89 | 1013.2 |
| 20260506115546 | 56 | 145 | 3.5 | 7.8 | 0.00 | 0.00 | 0.00 | 89 | 1013.1 |
| 20260506115446 | 56 | 134 | 3.5 | 7.8 | 0.00 | 0.00 | 0.00 | 89 | 1013.1 |
| 20260506115343 | 56 | 174 | 3.5 | 7.8 | 0.00 | 0.00 | 0.00 | 89 | 1013.1 |
| 20260506115243 | 56 | 141 | 3.5 | 8.7 | 0.00 | 0.00 | 0.00 | 89 | 1013.1 |
| 20260506115144 | 56 | 175 | 3.5 | 8.7 | 0.00 | 0.00 | 0.00 | 89 | 1013.2 |
| 20260506115043 | 56 | 128 | 3.5 | 8.7 | 0.00 | 0.00 | 0.00 | 89 | 1013.2 |
| 20260506114943 | 56 | 139 | 2.6 | 8.7 | 0.00 | 0.00 | 0.00 | 89 | 1013.4 |
| 20260506114843 | 56 | 147 | 3.5 | 8.7 | 0.00 | 0.00 | 0.00 | 89 | 1013.4 |
| 20260506114744 | 56 | 145 | 3.5 | 8.7 | 0.00 | 0.00 | 0.00 | 89 | 1013.4 |
| 20260506114644 | 56 | 141 | 3.5 | 8.7 | 0.00 | 0.00 | 0.00 | 89 | 1013.5 |
| 20260506114543 | 56 | 157 | 3.5 | 8.7 | 0.00 | 0.00 | 0.00 | 89 | 1013.4 |
| 20260506114443 | 56 | 183 | 3.5 | 8.7 | 0.00 | 0.00 | 0.00 | 89 | 1013.4 |
| 20260506114342 | 56 | 144 | 3.5 | 8.7 | 0.00 | 0.00 | 0.00 | 89 | 1013.5 |
| 20260506114241 | 56 | 126 | 4.3 | 7.8 | 0.00 | 0.00 | 0.00 | 89 | 1013.7 |
| 20260506114142 | 56 | 175 | 4.3 | 7.8 | 0.00 | 0.00 | 0.00 | 89 | 1013.5 |
| 20260506114036 | 56 | 199 | 4.3 | 7.8 | 0.00 | 0.00 | 0.00 | 89 | 1013.5 |
| 20260506113936 | 56 | 184 | 4.3 | 7.8 | 0.00 | 0.00 | 0.00 | 89 | 1013.5 |
| 20260506113836 | 56 | 181 | 4.3 | 7.8 | 0.00 | 0.00 | 0.00 | 89 | 1013.4 |
| 20260506113735 | 56 | 181 | 4.3 | 7.8 | 0.00 | 0.00 | 0.00 | 89 | 1013.4 |
| 20260506113635 | 56 | 183 | 4.3 | 7.8 | 0.00 | 0.00 | 0.00 | 89 | 1013.3 |
| 20260506113530 | 56 | 159 | 4.3 | 8.7 | 0.00 | 0.00 | 0.00 | 89 | 1013.2 |
| 20260506113429 | 56 | 121 | 4.3 | 8.7 | 0.00 | 0.00 | 0.00 | 89 | 1013.3 |
| 20260506113329 | 56 | 160 | 4.3 | 8.7 | 0.00 | 0.00 | 0.00 | 89 | 1013.4 |
| 20260506113228 | 56 | 150 | 4.3 | 8.7 | 0.00 | 0.00 | 0.00 | 89 | 1013.3 |
| 20260506113130 | 56 | 169 | 4.3 | 8.7 | 0.00 | 0.00 | 0.00 | 89 | 1013.3 |
| 20260506113026 | 56 | 198 | 4.3 | 8.7 | 0.00 | 0.00 | 0.00 | 89 | 1013.3 |
| 20260506112922 | 56 | 159 | 4.3 | 9.6 | 0.00 | 0.00 | 0.00 | 89 | 1013.2 |
| 20260506112823 | 56 | 151 | 4.3 | 10.4 | 0.00 | 0.00 | 0.00 | 89 | 1013.2 |
| 20260506112723 | 56 | 148 | 4.3 | 10.4 | 0.00 | 0.00 | 0.00 | 89 | 1013.1 |
| 20260506112622 | 56 | 163 | 4.3 | 10.4 | 0.00 | 0.00 | 0.00 | 89 | 1013.1 |
| 20260506112523 | 56 | 179 | 4.3 | 10.4 | 0.00 | 0.00 | 0.00 | 89 | 1013.1 |
| 20260506112424 | 56 | 150 | 4.3 | 10.4 | 0.00 | 0.00 | 0.00 | 89 | 1013.1 |
| 20260506112323 | 56 | 150 | 4.3 | 10.4 | 0.00 | 0.00 | 0.00 | 89 | 1013.0 |
| 20260506112222 | 56 | 145 | 4.3 | 10.4 | 0.00 | 0.00 | 0.00 | 89 | 1012.9 |
| 20260506112123 | 56 | 148 | 4.3 | 10.4 | 0.00 | 0.00 | 0.00 | 89 | 1013.0 |
| 20260506112025 | 56 | 141 | 4.3 | 10.4 | 0.00 | 0.00 | 0.00 | 89 | 1013.0 |
| 20260506111923 | 56 | 146 | 3.5 | 10.4 | 0.00 | 0.00 | 0.00 | 89 | 1013.0 |
| 20260506111823 | 56 | 141 | 3.5 | 8.7 | 0.00 | 0.00 | 0.00 | 89 | 1012.9 |
| 20260506111722 | 56 | 130 | 3.5 | 8.7 | 0.00 | 0.00 | 0.00 | 89 | 1013.0 |
| 20260506111622 | 56 | 132 | 3.5 | 8.7 | 0.00 | 0.00 | 0.00 | 89 | 1013.0 |
| 20260506111521 | 56 | 144 | 3.5 | 8.7 | 0.00 | 0.00 | 0.00 | 89 | 1013.0 |
| 20260506111422 | 56 | 140 | 3.5 | 8.7 | 0.00 | 0.00 | 0.00 | 88 | 1013.0 |
| 20260506111322 | 56 | 135 | 3.5 | 8.7 | 0.00 | 0.00 | 0.00 | 88 | 1013.0 |
| 20260506111221 | 56 | 142 | 3.5 | 8.7 | 0.00 | 0.00 | 0.00 | 88 | 1013.0 |
| 20260506111121 | 56 | 175 | 3.5 | 8.7 | 0.00 | 0.00 | 0.00 | 88 | 1013.0 |
| 20260506111022 | 56 | 183 | 3.5 | 7.0 | 0.00 | 0.00 | 0.00 | 88 | 1013.0 |
| 20260506110922 | 56 | 169 | 3.5 | 7.0 | 0.00 | 0.00 | 0.00 | 88 | 1013.0 |
| 20260506110818 | 56 | 178 | 3.5 | 7.8 | 0.00 | 0.00 | 0.00 | 88 | 1013.0 |
| 20260506110717 | 56 | 175 | 3.5 | 7.8 | 0.00 | 0.00 | 0.00 | 88 | 1013.0 |
| 20260506110617 | 56 | 154 | 3.5 | 7.8 | 0.00 | 0.00 | 0.00 | 88 | 1013.0 |
| 20260506110516 | 56 | 148 | 3.5 | 13.9 | 0.00 | 0.00 | 0.00 | 88 | 1012.9 |
| 20260506110416 | 56 | 142 | 3.5 | 13.9 | 0.00 | 0.00 | 0.00 | 88 | 1012.8 |
| 20260506110317 | 56 | 161 | 3.5 | 13.9 | 0.00 | 0.00 | 0.00 | 88 | 1012.9 |
| 20260506110216 | 56 | 138 | 4.3 | 13.9 | 0.00 | 0.00 | 0.00 | 88 | 1012.9 |
| 20260506110116 | 56 | 138 | 4.3 | 13.9 | 0.00 | 0.00 | 0.00 | 88 | 1012.8 |
| 20260506110017 | 56 | 184 | 4.3 | 13.9 | 0.00 | 0.00 | 0.00 | 88 | 1012.8 |
| 20260506105918 | 56 | 105 | 3.5 | 13.9 | 0.00 | 0.00 | 0.00 | 88 | 1012.8 |
| 20260506105818 | 56 | 163 | 3.5 | 13.9 | 0.00 | 0.00 | 0.00 | 88 | 1012.8 |
| 20260506105717 | 56 | 138 | 3.5 | 13.9 | 0.00 | 0.00 | 0.00 | 88 | 1012.7 |
| 20260506105612 | 56 | 111 | 3.5 | 13.9 | 0.00 | 0.00 | 0.00 | 88 | 1012.7 |
| 20260506105510 | 56 | 133 | 3.5 | 8.7 | 0.00 | 0.00 | 0.00 | 89 | 1012.8 |
| 20260506105413 | 56 | 140 | 3.5 | 7.8 | 0.00 | 0.00 | 0.00 | 89 | 1012.8 |
| 20260506105311 | 56 | 134 | 2.6 | 7.8 | 0.00 | 0.00 | 0.00 | 89 | 1012.8 |
| 20260506105212 | 56 | 114 | 2.6 | 7.8 | 0.00 | 0.00 | 0.00 | 89 | 1012.8 |
| 20260506105107 | 56 | 139 | 2.6 | 7.8 | 0.00 | 0.00 | 0.00 | 89 | 1012.8 |
| 20260506105006 | 56 | 159 | 2.6 | 7.8 | 0.00 | 0.00 | 0.00 | 89 | 1012.8 |
| 20260506104906 | 56 | 159 | 2.6 | 7.8 | 0.00 | 0.00 | 0.00 | 89 | 1012.8 |
| 20260506104806 | 56 | 110 | 2.6 | 8.7 | 0.00 | 0.00 | 0.00 | 89 | 1012.8 |
| 20260506104706 | 56 | 115 | 2.6 | 8.7 | 0.00 | 0.00 | 0.00 | 89 | 1012.8 |
| 20260506104600 | 56 | 137 | 2.6 | 8.7 | 0.00 | 0.00 | 0.00 | 89 | 1012.7 |
| 20260506104500 | 56 | 137 | 2.6 | 8.7 | 0.00 | 0.00 | 0.00 | 89 | 1012.9 |
| 20260506104359 | 56 | 159 | 2.6 | 8.7 | 0.00 | 0.00 | 0.00 | 89 | 1012.8 |
| 20260506104300 | 56 | 161 | 2.6 | 8.7 | 0.00 | 0.00 | 0.00 | 89 | 1012.8 |
| 20260506104159 | 56 | 142 | 2.6 | 8.7 | 0.00 | 0.00 | 0.00 | 89 | 1012.9 |
| 20260506104058 | 56 | 134 | 2.6 | 8.7 | 0.00 | 0.00 | 0.00 | 89 | 1012.9 |
| 20260506104000 | 56 | 144 | 1.7 | 8.7 | 0.00 | 0.00 | 0.00 | 89 | 1012.9 |
| 20260506103859 | 56 | 180 | 1.7 | 8.7 | 0.00 | 0.00 | 0.00 | 89 | 1013.0 |
| 20260506103800 | 56 | 87 | 2.6 | 6.1 | 0.00 | 0.00 | 0.00 | 89 | 1012.9 |
| 20260506103559 | 56 | 140 | 1.7 | 6.1 | 0.00 | 0.00 | 0.00 | 89 | 1012.8 |
| 20260506103457 | 56 | 189 | 1.7 | 6.1 | 0.00 | 0.00 | 0.00 | 89 | 1012.9 |
| 20260506103356 | 56 | 130 | 1.7 | 6.1 | 0.00 | 0.00 | 0.00 | 89 | 1012.7 |
| 20260506103159 | 55 | 133 | 1.7 | 6.1 | 0.00 | 0.00 | 0.00 | 89 | 1012.8 |
| 20260506103057 | 56 | 146 | 2.6 | 6.1 | 0.00 | 0.00 | 0.00 | 89 | 1012.8 |
| 20260506102958 | 55 | 147 | 2.6 | 7.8 | 0.00 | 0.00 | 0.00 | 89 | 1012.8 |
| 20260506102846 | 55 | 149 | 2.6 | 8.7 | 0.00 | 0.00 | 0.00 | 89 | 1012.8 |
| 20260506102748 | 55 | 180 | 2.6 | 8.7 | 0.00 | 0.00 | 0.00 | 89 | 1012.7 |
| 20260506102648 | 55 | 187 | 2.6 | 8.7 | 0.00 | 0.00 | 0.00 | 89 | 1012.8 |
| 20260506102547 | 55 | 199 | 2.6 | 8.7 | 0.00 | 0.00 | 0.00 | 89 | 1012.7 |
| 20260506102448 | 55 | 200 | 3.5 | 8.7 | 0.00 | 0.00 | 0.00 | 89 | 1012.6 |
| 20260506102342 | 55 | 178 | 3.5 | 8.7 | 0.00 | 0.00 | 0.00 | 89 | 1012.6 |
| 20260506102242 | 55 | 148 | 3.5 | 8.7 | 0.00 | 0.00 | 0.00 | 89 | 1012.5 |
| 20260506102142 | 55 | 148 | 3.5 | 8.7 | 0.00 | 0.00 | 0.00 | 89 | 1012.5 |
| 20260506102042 | 55 | 129 | 3.5 | 8.7 | 0.00 | 0.00 | 0.00 | 89 | 1012.5 |
| 20260506101942 | 55 | 127 | 2.6 | 8.7 | 0.00 | 0.00 | 0.00 | 89 | 1012.5 |
| 20260506101839 | 55 | 153 | 2.6 | 8.7 | 0.00 | 0.00 | 0.00 | 89 | 1012.5 |
| 20260506101740 | 55 | 171 | 3.5 | 8.7 | 0.00 | 0.00 | 0.00 | 89 | 1012.6 |
| 20260506101639 | 55 | 139 | 3.5 | 8.7 | 0.00 | 0.00 | 0.00 | 89 | 1012.5 |
| 20260506101538 | 55 | 163 | 3.5 | 8.7 | 0.00 | 0.00 | 0.00 | 89 | 1012.6 |
| 20260506101436 | 55 | 157 | 4.3 | 8.7 | 0.00 | 0.00 | 0.00 | 89 | 1012.6 |
| 20260506101328 | 55 | 116 | 3.5 | 11.3 | 0.00 | 0.00 | 0.00 | 89 | 1012.5 |
| 20260506101229 | 55 | 142 | 4.3 | 11.3 | 0.00 | 0.00 | 0.00 | 89 | 1012.5 |
| 20260506101128 | 55 | 145 | 4.3 | 11.3 | 0.00 | 0.00 | 0.00 | 89 | 1012.5 |
| 20260506101028 | 56 | 129 | 4.3 | 11.3 | 0.00 | 0.00 | 0.00 | 89 | 1012.6 |
| 20260506100926 | 56 | 143 | 4.3 | 11.3 | 0.00 | 0.00 | 0.00 | 89 | 1012.5 |
| 20260506100819 | 55 | 167 | 4.3 | 11.3 | 0.00 | 0.00 | 0.00 | 89 | 1012.4 |
| 20260506100720 | 55 | 124 | 4.3 | 11.3 | 0.00 | 0.00 | 0.00 | 89 | 1012.4 |
| 20260506100620 | 56 | 148 | 4.3 | 11.3 | 0.00 | 0.00 | 0.00 | 89 | 1012.5 |
| 20260506100519 | 56 | 121 | 4.3 | 11.3 | 0.00 | 0.00 | 0.00 | 89 | 1012.5 |
| 20260506100420 | 56 | 128 | 4.3 | 10.4 | 0.00 | 0.00 | 0.00 | 89 | 1012.5 |
| 20260506100315 | 56 | 152 | 4.3 | 10.4 | 0.00 | 0.00 | 0.00 | 89 | 1012.6 |
| 20260506100215 | 56 | 173 | 4.3 | 10.4 | 0.00 | 0.00 | 0.00 | 89 | 1012.5 |
| 20260506100115 | 56 | 163 | 4.3 | 10.4 | 0.00 | 0.00 | 0.00 | 89 | 1012.5 |
| 20260506100017 | 56 | 163 | 4.3 | 10.4 | 0.00 | 0.00 | 0.00 | 89 | 1012.4 |
| 20260506095913 | 56 | 174 | 4.3 | 10.4 | 0.00 | 0.00 | 0.00 | 89 | 1012.4 |
| 20260506095803 | 56 | 144 | 4.3 | 10.4 | 0.00 | 0.00 | 0.00 | 89 | 1012.3 |
| 20260506095704 | 56 | 115 | 4.3 | 10.4 | 0.00 | 0.00 | 0.00 | 89 | 1012.4 |
| 20260506095604 | 56 | 225 | 4.3 | 10.4 | 0.00 | 0.00 | 0.00 | 89 | 1012.4 |
| 20260506095503 | 56 | 148 | 4.3 | 10.4 | 0.00 | 0.00 | 0.00 | 89 | 1012.4 |
| 20260506095403 | 56 | 124 | 4.3 | 10.4 | 0.00 | 0.00 | 0.00 | 89 | 1012.4 |
| 20260506095257 | 56 | 136 | 4.3 | 10.4 | 0.00 | 0.00 | 0.00 | 89 | 1012.4 |
| 20260506095157 | 56 | 131 | 4.3 | 10.4 | 0.00 | 0.00 | 0.00 | 89 | 1012.4 |
| 20260506095058 | 56 | 139 | 4.3 | 9.6 | 0.00 | 0.00 | 0.00 | 88 | 1012.4 |
| 20260506094957 | 56 | 159 | 4.3 | 9.6 | 0.00 | 0.00 | 0.00 | 88 | 1012.5 |
| 20260506094858 | 56 | 147 | 4.3 | 9.6 | 0.00 | 0.00 | 0.00 | 88 | 1012.5 |
| 20260506094753 | 56 | 155 | 4.3 | 9.6 | 0.00 | 0.00 | 0.00 | 88 | 1012.5 |
| 20260506094654 | 56 | 136 | 4.3 | 9.6 | 0.00 | 0.00 | 0.00 | 88 | 1012.6 |
| 20260506094553 | 56 | 123 | 4.3 | 8.7 | 0.00 | 0.00 | 0.00 | 88 | 1012.7 |
| 20260506094454 | 56 | 153 | 4.3 | 8.7 | 0.00 | 0.00 | 0.00 | 88 | 1012.6 |
| 20260506094352 | 56 | 160 | 4.3 | 8.7 | 0.00 | 0.00 | 0.00 | 88 | 1012.7 |
| 20260506094243 | 56 | 180 | 4.3 | 8.7 | 0.00 | 0.00 | 0.00 | 88 | 1012.6 |
| 20260506094141 | 56 | 136 | 4.3 | 8.7 | 0.00 | 0.00 | 0.00 | 88 | 1012.6 |
| 20260506094042 | 56 | 163 | 4.3 | 8.7 | 0.00 | 0.00 | 0.00 | 88 | 1012.5 |
| 20260506093942 | 56 | 134 | 4.3 | 9.6 | 0.00 | 0.00 | 0.00 | 88 | 1012.5 |
| 20260506093842 | 56 | 138 | 4.3 | 9.6 | 0.00 | 0.00 | 0.00 | 88 | 1012.6 |
| 20260506093738 | 56 | 172 | 4.3 | 9.6 | 0.00 | 0.00 | 0.00 | 88 | 1012.6 |
| 20260506093635 | 56 | 130 | 4.3 | 9.6 | 0.00 | 0.00 | 0.00 | 88 | 1012.6 |
| 20260506093534 | 56 | 150 | 4.3 | 9.6 | 0.00 | 0.00 | 0.00 | 88 | 1012.6 |
| 20260506093436 | 56 | 162 | 4.3 | 9.6 | 0.00 | 0.00 | 0.00 | 88 | 1012.6 |
| 20260506093336 | 56 | 148 | 4.3 | 9.6 | 0.00 | 0.00 | 0.00 | 88 | 1012.8 |
| 20260506093230 | 56 | 174 | 4.3 | 9.6 | 0.00 | 0.00 | 0.00 | 88 | 1012.7 |
| 20260506093130 | 56 | 146 | 4.3 | 9.6 | 0.00 | 0.00 | 0.00 | 88 | 1012.7 |
| 20260506093029 | 56 | 136 | 3.5 | 9.6 | 0.00 | 0.00 | 0.00 | 87 | 1012.6 |
| 20260506092930 | 56 | 163 | 3.5 | 7.8 | 0.00 | 0.00 | 0.00 | 87 | 1012.6 |
| 20260506092830 | 56 | 177 | 3.5 | 7.8 | 0.00 | 0.00 | 0.00 | 87 | 1012.5 |
| 20260506092720 | 56 | 196 | 3.5 | 7.8 | 0.00 | 0.00 | 0.00 | 88 | 1012.6 |
| 20260506092618 | 56 | 155 | 3.5 | 7.8 | 0.00 | 0.00 | 0.00 | 87 | 1012.5 |
| 20260506092520 | 56 | 194 | 3.5 | 7.8 | 0.00 | 0.00 | 0.00 | 87 | 1012.6 |
| 20260506092418 | 56 | 156 | 3.5 | 7.8 | 0.00 | 0.00 | 0.00 | 87 | 1012.6 |
| 20260506092319 | 56 | 158 | 4.3 | 7.8 | 0.00 | 0.00 | 0.00 | 87 | 1012.5 |
| 20260506092215 | 56 | 153 | 4.3 | 9.6 | 0.00 | 0.00 | 0.00 | 87 | 1012.5 |
| 20260506092114 | 56 | 184 | 4.3 | 10.4 | 0.00 | 0.00 | 0.00 | 87 | 1012.6 |
| 20260506092014 | 56 | 172 | 4.3 | 10.4 | 0.00 | 0.00 | 0.00 | 87 | 1012.5 |
| 20260506091912 | 56 | 142 | 4.3 | 10.4 | 0.00 | 0.00 | 0.00 | 87 | 1012.5 |
| 20260506091814 | 56 | 148 | 5.2 | 10.4 | 0.00 | 0.00 | 0.00 | 87 | 1012.5 |
| 20260506091710 | 56 | 153 | 5.2 | 10.4 | 0.00 | 0.00 | 0.00 | 87 | 1012.5 |
| 20260506091607 | 56 | 188 | 5.2 | 10.4 | 0.00 | 0.00 | 0.00 | 87 | 1012.6 |
| 20260506091508 | 56 | 142 | 5.2 | 10.4 | 0.00 | 0.00 | 0.00 | 87 | 1012.4 |
| 20260506091408 | 56 | 140 | 6.1 | 10.4 | 0.00 | 0.00 | 0.00 | 87 | 1012.6 |
| 20260506091308 | 56 | 151 | 5.2 | 10.4 | 0.00 | 0.00 | 0.00 | 87 | 1012.5 |
| 20260506091157 | 56 | 173 | 5.2 | 10.4 | 0.00 | 0.00 | 0.00 | 87 | 1012.5 |
| 20260506091058 | 56 | 145 | 5.2 | 10.4 | 0.00 | 0.00 | 0.00 | 87 | 1012.5 |
| 20260506090958 | 56 | 130 | 5.2 | 10.4 | 0.00 | 0.00 | 0.00 | 87 | 1012.6 |
| 20260506090858 | 57 | 131 | 5.2 | 10.4 | 0.00 | 0.00 | 0.00 | 87 | 1012.7 |
| 20260506090758 | 57 | 137 | 5.2 | 10.4 | 0.00 | 0.00 | 0.00 | 87 | 1012.6 |
| 20260506090652 | 57 | 138 | 5.2 | 10.4 | 0.00 | 0.00 | 0.00 | 87 | 1012.6 |
| 20260506090550 | 57 | 134 | 5.2 | 10.4 | 0.00 | 0.00 | 0.00 | 87 | 1012.7 |
| 20260506090452 | 57 | 144 | 4.3 | 10.4 | 0.00 | 0.00 | 0.00 | 87 | 1012.6 |
| 20260506090351 | 57 | 145 | 4.3 | 10.4 | 0.00 | 0.00 | 0.00 | 87 | 1012.8 |
| 20260506090252 | 57 | 186 | 4.3 | 10.4 | 0.00 | 0.00 | 0.00 | 87 | 1012.8 |
| 20260506090146 | 57 | 213 | 4.3 | 10.4 | 0.00 | 0.00 | 0.00 | 87 | 1012.6 |
| 20260506090046 | 57 | 203 | 4.3 | 10.4 | 0.00 | 0.00 | 0.00 | 87 | 1012.7 |
| 20260506085946 | 57 | 155 | 4.3 | 15.6 | 0.00 | 0.00 | 0.00 | 87 | 1012.8 |
| 20260506085845 | 57 | 155 | 4.3 | 15.6 | 0.00 | 0.00 | 0.00 | 87 | 1012.8 |
| 20260506085746 | 57 | 143 | 4.3 | 15.6 | 0.00 | 0.00 | 0.00 | 87 | 1012.7 |
| 20260506085636 | 57 | 167 | 4.3 | 15.6 | 0.00 | 0.00 | 0.00 | 87 | 1012.7 |
| 20260506085534 | 57 | 144 | 4.3 | 15.6 | 0.00 | 0.00 | 0.00 | 87 | 1012.7 |
| 20260506085436 | 57 | 134 | 4.3 | 15.6 | 0.00 | 0.00 | 0.00 | 87 | 1012.9 |
| 20260506085335 | 57 | 136 | 4.3 | 15.6 | 0.00 | 0.00 | 0.00 | 87 | 1012.8 |
| 20260506085235 | 57 | 171 | 4.3 | 15.6 | 0.00 | 0.00 | 0.00 | 87 | 1012.8 |
| 20260506085129 | 57 | 142 | 4.3 | 15.6 | 0.00 | 0.00 | 0.00 | 87 | 1012.8 |
| 20260506085028 | 57 | 180 | 4.3 | 15.6 | 0.00 | 0.00 | 0.00 | 86 | 1012.9 |
| 20260506084930 | 57 | 142 | 4.3 | 10.4 | 0.00 | 0.00 | 0.00 | 86 | 1012.9 |
| 20260506084830 | 57 | 149 | 4.3 | 10.4 | 0.00 | 0.00 | 0.00 | 87 | 1012.8 |
| 20260506084730 | 57 | 153 | 4.3 | 10.4 | 0.00 | 0.00 | 0.00 | 86 | 1012.8 |
| 20260506084625 | 57 | 148 | 4.3 | 10.4 | 0.00 | 0.00 | 0.00 | 86 | 1012.8 |
| 20260506084525 | 57 | 183 | 4.3 | 10.4 | 0.00 | 0.00 | 0.00 | 86 | 1012.8 |
| 20260506084425 | 57 | 172 | 4.3 | 10.4 | 0.00 | 0.00 | 0.00 | 86 | 1012.8 |
| 20260506084325 | 57 | 178 | 4.3 | 10.4 | 0.00 | 0.00 | 0.00 | 86 | 1012.9 |
| 20260506084223 | 57 | 156 | 4.3 | 10.4 | 0.00 | 0.00 | 0.00 | 86 | 1012.9 |
| 20260506084115 | 57 | 142 | 4.3 | 10.4 | 0.00 | 0.00 | 0.00 | 86 | 1012.9 |
| 20260506084015 | 57 | 167 | 4.3 | 10.4 | 0.00 | 0.00 | 0.00 | 86 | 1013.0 |
| 20260506083914 | 57 | 147 | 4.3 | 12.2 | 0.00 | 0.00 | 0.00 | 86 | 1012.9 |
| 20260506083813 | 57 | 148 | 4.3 | 12.2 | 0.00 | 0.00 | 0.00 | 86 | 1012.9 |
| 20260506083714 | 57 | 142 | 4.3 | 12.2 | 0.00 | 0.00 | 0.00 | 86 | 1012.9 |
| 20260506083608 | 57 | 169 | 4.3 | 12.2 | 0.00 | 0.00 | 0.00 | 86 | 1012.9 |
| 20260506083508 | 57 | 179 | 4.3 | 12.2 | 0.00 | 0.00 | 0.00 | 86 | 1012.8 |
| 20260506083409 | 57 | 145 | 4.3 | 12.2 | 0.00 | 0.00 | 0.00 | 86 | 1012.8 |
| 20260506083308 | 57 | 128 | 4.3 | 12.2 | 0.00 | 0.00 | 0.00 | 86 | 1012.8 |
| 20260506083208 | 57 | 138 | 3.5 | 12.2 | 0.00 | 0.00 | 0.00 | 86 | 1012.9 |
| 20260506083100 | 57 | 142 | 4.3 | 12.2 | 0.00 | 0.00 | 0.00 | 86 | 1012.9 |
| 20260506083001 | 57 | 162 | 3.5 | 12.2 | 0.00 | 0.00 | 0.00 | 85 | 1013.0 |
| 20260506082901 | 57 | 158 | 3.5 | 8.7 | 0.00 | 0.00 | 0.00 | 85 | 1013.1 |
| 20260506082802 | 57 | 173 | 4.3 | 8.7 | 0.00 | 0.00 | 0.00 | 85 | 1013.0 |
| 20260506082702 | 57 | 139 | 4.3 | 8.7 | 0.00 | 0.00 | 0.00 | 85 | 1013.0 |
| 20260506082550 | 57 | 161 | 3.5 | 8.7 | 0.00 | 0.00 | 0.00 | 85 | 1012.9 |
| 20260506082452 | 57 | 183 | 4.3 | 8.7 | 0.00 | 0.00 | 0.00 | 85 | 1013.0 |
| 20260506082352 | 57 | 164 | 4.3 | 8.7 | 0.00 | 0.00 | 0.00 | 85 | 1013.0 |
| 20260506082252 | 57 | 188 | 4.3 | 8.7 | 0.00 | 0.00 | 0.00 | 85 | 1012.9 |
| 20260506082152 | 57 | 124 | 4.3 | 8.7 | 0.00 | 0.00 | 0.00 | 85 | 1012.8 |
| 20260506082051 | 57 | 170 | 4.3 | 9.6 | 0.00 | 0.00 | 0.00 | 85 | 1012.9 |
| 20260506081950 | 57 | 132 | 5.2 | 13.0 | 0.00 | 0.00 | 0.00 | 85 | 1012.9 |
| 20260506081849 | 57 | 153 | 5.2 | 13.0 | 0.00 | 0.00 | 0.00 | 85 | 1012.9 |
| 20260506081747 | 57 | 175 | 6.1 | 13.0 | 0.00 | 0.00 | 0.00 | 85 | 1012.9 |
| 20260506081646 | 57 | 137 | 6.1 | 13.0 | 0.00 | 0.00 | 0.00 | 85 | 1012.9 |
| 20260506081538 | 57 | 162 | 6.1 | 13.0 | 0.00 | 0.00 | 0.00 | 85 | 1012.9 |
| 20260506081439 | 57 | 142 | 6.1 | 13.0 | 0.00 | 0.00 | 0.00 | 85 | 1013.0 |
| 20260506081340 | 57 | 166 | 6.1 | 13.0 | 0.00 | 0.00 | 0.00 | 85 | 1013.0 |
| 20260506081239 | 57 | 165 | 6.1 | 13.0 | 0.00 | 0.00 | 0.00 | 85 | 1012.9 |
| 20260506081140 | 57 | 190 | 6.1 | 13.0 | 0.00 | 0.00 | 0.00 | 85 | 1012.7 |
| 20260506081036 | 57 | 136 | 6.1 | 13.0 | 0.00 | 0.00 | 0.00 | 85 | 1012.7 |
| 20260506080936 | 57 | 132 | 5.2 | 13.0 | 0.00 | 0.00 | 0.00 | 84 | 1012.7 |
| 20260506080835 | 57 | 191 | 5.2 | 13.0 | 0.00 | 0.00 | 0.00 | 84 | 1012.7 |
| 20260506080734 | 58 | 136 | 5.2 | 12.2 | 0.00 | 0.00 | 0.00 | 84 | 1012.5 |
| 20260506080632 | 58 | 144 | 5.2 | 12.2 | 0.00 | 0.00 | 0.00 | 84 | 1012.5 |
| 20260506080533 | 58 | 134 | 5.2 | 12.2 | 0.00 | 0.00 | 0.00 | 84 | 1012.6 |
| 20260506080433 | 58 | 133 | 5.2 | 12.2 | 0.00 | 0.00 | 0.00 | 84 | 1012.5 |
| 20260506080332 | 58 | 177 | 4.3 | 9.6 | 0.00 | 0.00 | 0.00 | 84 | 1012.5 |
| 20260506080232 | 58 | 167 | 5.2 | 13.9 | 0.00 | 0.00 | 0.00 | 84 | 1012.7 |
| 20260506080131 | 58 | 163 | 5.2 | 13.9 | 0.00 | 0.00 | 0.00 | 84 | 1012.8 |
| 20260506073521 | 58 | 189 | 5.2 | 12.2 | 0.00 | 0.00 | 0.00 | 83 | 1012.9 |
| 20260506073422 | 58 | 117 | 5.2 | 12.2 | 0.00 | 0.00 | 0.00 | 83 | 1012.9 |
| 20260506073322 | 58 | 138 | 5.2 | 12.2 | 0.00 | 0.00 | 0.00 | 83 | 1012.9 |
| 20260506073222 | 58 | 132 | 5.2 | 12.2 | 0.00 | 0.00 | 0.00 | 82 | 1013.0 |
| 20260506073115 | 58 | 150 | 5.2 | 12.2 | 0.00 | 0.00 | 0.00 | 82 | 1013.0 |
| 20260506073016 | 58 | 143 | 5.2 | 12.2 | 0.00 | 0.00 | 0.00 | 82 | 1013.0 |
| 20260506072916 | 58 | 134 | 5.2 | 13.0 | 0.00 | 0.00 | 0.00 | 82 | 1013.0 |
| 20260506072816 | 58 | 130 | 6.1 | 13.0 | 0.00 | 0.00 | 0.00 | 82 | 1013.0 |
| 20260506072716 | 58 | 144 | 6.1 | 13.0 | 0.00 | 0.00 | 0.00 | 82 | 1013.0 |
| 20260506072610 | 58 | 171 | 5.2 | 13.0 | 0.00 | 0.00 | 0.00 | 82 | 1012.9 |
| 20260506072512 | 58 | 172 | 5.2 | 13.0 | 0.00 | 0.00 | 0.00 | 82 | 1013.0 |
| 20260506072412 | 58 | 190 | 5.2 | 13.0 | 0.00 | 0.00 | 0.00 | 81 | 1012.9 |
| 20260506072311 | 58 | 144 | 6.1 | 13.0 | 0.00 | 0.00 | 0.00 | 81 | 1013.0 |
| 20260506072212 | 58 | 148 | 6.1 | 13.0 | 0.00 | 0.00 | 0.00 | 82 | 1012.9 |
| 20260506072112 | 58 | 201 | 6.1 | 15.6 | 0.00 | 0.00 | 0.00 | 81 | 1013.0 |
| 20260506072011 | 58 | 184 | 6.1 | 15.6 | 0.00 | 0.00 | 0.00 | 81 | 1013.0 |
| 20260506071909 | 58 | 163 | 5.2 | 15.6 | 0.00 | 0.00 | 0.00 | 81 | 1013.2 |
| 20260506071808 | 58 | 161 | 5.2 | 15.6 | 0.00 | 0.00 | 0.00 | 81 | 1013.2 |
| 20260506071708 | 58 | 148 | 5.2 | 15.6 | 0.00 | 0.00 | 0.00 | 81 | 1013.2 |
| 20260506071608 | 58 | 171 | 6.1 | 15.6 | 0.00 | 0.00 | 0.00 | 81 | 1013.1 |
| 20260506071507 | 58 | 171 | 5.2 | 15.6 | 0.00 | 0.00 | 0.00 | 81 | 1013.1 |
| 20260506071406 | 58 | 141 | 6.1 | 15.6 | 0.00 | 0.00 | 0.00 | 81 | 1013.2 |
| 20260506071308 | 58 | 180 | 6.1 | 15.6 | 0.00 | 0.00 | 0.00 | 81 | 1013.2 |
| 20260506071206 | 58 | 143 | 6.1 | 15.6 | 0.00 | 0.00 | 0.00 | 81 | 1013.3 |
| 20260506071108 | 58 | 151 | 6.1 | 13.9 | 0.00 | 0.00 | 0.00 | 81 | 1013.1 |
| 20260506071008 | 58 | 139 | 6.1 | 13.9 | 0.00 | 0.00 | 0.00 | 81 | 1013.2 |
| 20260506070901 | 58 | 157 | 5.2 | 13.9 | 0.00 | 0.00 | 0.00 | 81 | 1013.1 |
| 20260506070801 | 58 | 168 | 5.2 | 13.9 | 0.00 | 0.00 | 0.00 | 81 | 1013.2 |
| 20260506070702 | 58 | 157 | 5.2 | 13.9 | 0.00 | 0.00 | 0.00 | 81 | 1013.1 |
| 20260506070600 | 58 | 155 | 5.2 | 13.9 | 0.00 | 0.00 | 0.00 | 81 | 1013.2 |
| 20260506070502 | 58 | 138 | 6.1 | 11.3 | 0.00 | 0.00 | 0.00 | 81 | 1013.1 |
| 20260506070358 | 58 | 165 | 5.2 | 14.8 | 0.00 | 0.00 | 0.00 | 81 | 1013.2 |
| 20260506070255 | 58 | 219 | 5.2 | 14.8 | 0.00 | 0.00 | 0.00 | 81 | 1013.2 |
| 20260506070156 | 58 | 153 | 5.2 | 14.8 | 0.00 | 0.00 | 0.00 | 81 | 1013.2 |
| 20260506062426 | 59 | 167 | 5.2 | 11.3 | 0.00 | 0.00 | 0.00 | 77 | 1013.4 |
| 20260506062325 | 59 | 146 | 5.2 | 11.3 | 0.00 | 0.00 | 0.00 | 77 | 1013.3 |
| 20260506062226 | 59 | 184 | 5.2 | 11.3 | 0.00 | 0.00 | 0.00 | 77 | 1013.3 |
| 20260506062124 | 59 | 145 | 5.2 | 11.3 | 0.00 | 0.00 | 0.00 | 77 | 1013.3 |
| 20260506062026 | 59 | 133 | 5.2 | 11.3 | 0.00 | 0.00 | 0.00 | 77 | 1013.4 |
| 20260506061926 | 59 | 158 | 5.2 | 11.3 | 0.00 | 0.00 | 0.00 | 76 | 1013.4 |
| 20260506061825 | 59 | 140 | 5.2 | 12.2 | 0.00 | 0.00 | 0.00 | 76 | 1013.5 |
| 20260506061726 | 59 | 144 | 5.2 | 12.2 | 0.00 | 0.00 | 0.00 | 76 | 1013.4 |
| 20260506061624 | 59 | 150 | 5.2 | 12.2 | 0.00 | 0.00 | 0.00 | 76 | 1013.5 |
| 20260506061523 | 59 | 148 | 5.2 | 12.2 | 0.00 | 0.00 | 0.00 | 76 | 1013.4 |
| 20260506061422 | 59 | 172 | 4.3 | 12.2 | 0.00 | 0.00 | 0.00 | 76 | 1013.5 |
| 20260506061323 | 59 | 140 | 4.3 | 12.2 | 0.00 | 0.00 | 0.00 | 75 | 1013.5 |
| 20260506061222 | 59 | 148 | 4.3 | 12.2 | 0.00 | 0.00 | 0.00 | 75 | 1013.5 |
| 20260506061124 | 59 | 142 | 4.3 | 12.2 | 0.00 | 0.00 | 0.00 | 75 | 1013.5 |
| 20260506061024 | 59 | 155 | 4.3 | 12.2 | 0.00 | 0.00 | 0.00 | 75 | 1013.5 |
| 20260506060915 | 59 | 146 | 4.3 | 12.2 | 0.00 | 0.00 | 0.00 | 75 | 1013.4 |
| 20260506060812 | 59 | 108 | 4.3 | 12.2 | 0.00 | 0.00 | 0.00 | 75 | 1013.5 |
| 20260506060713 | 59 | 148 | 4.3 | 12.2 | 0.00 | 0.00 | 0.00 | 75 | 1013.7 |
| 20260506060613 | 59 | 146 | 4.3 | 12.2 | 0.00 | 0.00 | 0.00 | 75 | 1013.5 |
| 20260506060513 | 59 | 161 | 4.3 | 12.2 | 0.00 | 0.00 | 0.00 | 75 | 1013.5 |
| 20260506060412 | 59 | 136 | 4.3 | 12.2 | 0.00 | 0.00 | 0.00 | 75 | 1013.7 |
| 20260506060313 | 59 | 150 | 4.3 | 12.2 | 0.00 | 0.00 | 0.00 | 74 | 1013.7 |
| 20260506060214 | 59 | 155 | 4.3 | 12.2 | 0.00 | 0.00 | 0.00 | 74 | 1013.7 |
| 20260506060114 | 59 | 152 | 4.3 | 12.2 | 0.00 | 0.00 | 0.00 | 74 | 1013.7 |
| 20260506051400 | 61 | 173 | 5.2 | 11.3 | 0.00 | 0.00 | 0.00 | 68 | 1013.7 |
| 20260506051300 | 61 | 160 | 5.2 | 11.3 | 0.00 | 0.00 | 0.00 | 67 | 1013.5 |
| 20260506051202 | 61 | 155 | 5.2 | 11.3 | 0.00 | 0.00 | 0.00 | 67 | 1013.5 |
| 20260506051056 | 61 | 148 | 6.1 | 11.3 | 0.00 | 0.00 | 0.00 | 67 | 1013.7 |
| 20260506050956 | 61 | 142 | 6.1 | 11.3 | 0.00 | 0.00 | 0.00 | 67 | 1013.5 |
| 20260506050858 | 61 | 145 | 5.2 | 11.3 | 0.00 | 0.00 | 0.00 | 67 | 1013.5 |
| 20260506050757 | 61 | 135 | 5.2 | 11.3 | 0.00 | 0.00 | 0.00 | 67 | 1013.7 |
| 20260506050658 | 61 | 152 | 5.2 | 11.3 | 0.00 | 0.00 | 0.00 | 67 | 1013.7 |
| 20260506050557 | 61 | 147 | 5.2 | 11.3 | 0.00 | 0.00 | 0.00 | 66 | 1013.7 |
| 20260506050455 | 61 | 153 | 5.2 | 11.3 | 0.00 | 0.00 | 0.00 | 66 | 1013.7 |
| 20260506050356 | 61 | 142 | 5.2 | 11.3 | 0.00 | 0.00 | 0.00 | 66 | 1013.7 |
| 20260506050255 | 61 | 180 | 5.2 | 11.3 | 0.00 | 0.00 | 0.00 | 66 | 1013.8 |
| 20260506050155 | 61 | 142 | 5.2 | 11.3 | 0.00 | 0.00 | 0.00 | 66 | 1013.8 |
| 20260506045048 | 62 | 148 | 4.3 | 12.2 | 0.00 | 0.00 | 0.00 | 64 | 1013.9 |
| 20260506044946 | 62 | 176 | 4.3 | 12.2 | 0.00 | 0.00 | 0.00 | 65 | 1013.9 |
| 20260506044846 | 62 | 153 | 4.3 | 12.2 | 0.00 | 0.00 | 0.00 | 64 | 1013.9 |
| 20260506044747 | 62 | 163 | 5.2 | 12.2 | 0.00 | 0.00 | 0.00 | 64 | 1013.9 |
| 20260506044646 | 62 | 154 | 5.2 | 12.2 | 0.00 | 0.00 | 0.00 | 64 | 1013.7 |
| 20260506044547 | 63 | 186 | 5.2 | 12.2 | 0.00 | 0.00 | 0.00 | 64 | 1013.8 |
| 20260506044448 | 63 | 140 | 5.2 | 12.2 | 0.00 | 0.00 | 0.00 | 64 | 1013.7 |
| 20260506044346 | 63 | 133 | 5.2 | 13.0 | 0.00 | 0.00 | 0.00 | 64 | 1013.7 |
| 20260506044248 | 63 | 126 | 5.2 | 13.0 | 0.00 | 0.00 | 0.00 | 64 | 1013.5 |
| 20260506044146 | 63 | 146 | 6.1 | 13.0 | 0.00 | 0.00 | 0.00 | 64 | 1013.5 |
| 20260506044046 | 63 | 174 | 5.2 | 13.0 | 0.00 | 0.00 | 0.00 | 64 | 1013.5 |
| 20260506043946 | 63 | 152 | 5.2 | 13.0 | 0.00 | 0.00 | 0.00 | 64 | 1013.4 |
| 20260506043848 | 63 | 131 | 5.2 | 13.0 | 0.00 | 0.00 | 0.00 | 64 | 1013.5 |
| 20260506043746 | 63 | 152 | 5.2 | 13.0 | 0.00 | 0.00 | 0.00 | 63 | 1013.4 |
| 20260506043646 | 63 | 150 | 5.2 | 13.0 | 0.00 | 0.00 | 0.00 | 63 | 1013.3 |
| 20260506043548 | 63 | 134 | 5.2 | 13.0 | 0.00 | 0.00 | 0.00 | 63 | 1013.5 |
| 20260506043446 | 63 | 182 | 5.2 | 13.0 | 0.00 | 0.00 | 0.00 | 63 | 1013.4 |
| 20260506043346 | 63 | 142 | 5.2 | 13.0 | 0.00 | 0.00 | 0.00 | 63 | 1013.5 |
| 20260506043248 | 63 | 162 | 5.2 | 13.0 | 0.00 | 0.00 | 0.00 | 63 | 1013.5 |
| 20260506043146 | 63 | 115 | 5.2 | 13.0 | 0.00 | 0.00 | 0.00 | 63 | 1013.5 |
| 20260506043047 | 63 | 146 | 5.2 | 13.0 | 0.00 | 0.00 | 0.00 | 63 | 1013.8 |
| 20260506042947 | 63 | 167 | 5.2 | 13.0 | 0.00 | 0.00 | 0.00 | 63 | 1013.7 |
| 20260506042846 | 63 | 167 | 6.1 | 13.0 | 0.00 | 0.00 | 0.00 | 63 | 1013.7 |
| 20260506042748 | 63 | 150 | 6.1 | 13.0 | 0.00 | 0.00 | 0.00 | 63 | 1013.7 |
| 20260506042648 | 63 | 132 | 5.2 | 13.0 | 0.00 | 0.00 | 0.00 | 63 | 1013.9 |
| 20260506042547 | 63 | 143 | 5.2 | 13.0 | 0.00 | 0.00 | 0.00 | 63 | 1013.8 |
| 20260506042447 | 63 | 142 | 5.2 | 13.0 | 0.00 | 0.00 | 0.00 | 63 | 1013.9 |
| 20260506042346 | 63 | 159 | 5.2 | 12.2 | 0.00 | 0.00 | 0.00 | 63 | 1013.8 |
| 20260506042247 | 63 | 142 | 5.2 | 14.8 | 0.00 | 0.00 | 0.00 | 63 | 1013.8 |
| 20260506042147 | 63 | 169 | 5.2 | 14.8 | 0.00 | 0.00 | 0.00 | 63 | 1013.9 |
| 20260506042047 | 63 | 186 | 5.2 | 14.8 | 0.00 | 0.00 | 0.00 | 63 | 1013.8 |
| 20260506041948 | 63 | 121 | 5.2 | 14.8 | 0.00 | 0.00 | 0.00 | 63 | 1013.8 |
| 20260506041842 | 63 | 138 | 5.2 | 14.8 | 0.00 | 0.00 | 0.00 | 63 | 1013.8 |
| 20260506041743 | 63 | 211 | 5.2 | 14.8 | 0.00 | 0.00 | 0.00 | 63 | 1013.8 |
| 20260506041644 | 63 | 136 | 5.2 | 14.8 | 0.00 | 0.00 | 0.00 | 63 | 1013.8 |
| 20260506041542 | 63 | 138 | 5.2 | 14.8 | 0.00 | 0.00 | 0.00 | 63 | 1013.9 |
| 20260506041442 | 63 | 171 | 5.2 | 14.8 | 0.00 | 0.00 | 0.00 | 63 | 1013.9 |
| 20260506041343 | 63 | 146 | 5.2 | 14.8 | 0.00 | 0.00 | 0.00 | 63 | 1013.9 |
| 20260506041242 | 63 | 138 | 5.2 | 13.9 | 0.00 | 0.00 | 0.00 | 63 | 1013.9 |
| 20260506041140 | 63 | 169 | 4.3 | 13.9 | 0.00 | 0.00 | 0.00 | 63 | 1013.8 |
| 20260506041040 | 63 | 131 | 4.3 | 10.4 | 0.00 | 0.00 | 0.00 | 63 | 1013.8 |
| 20260506040942 | 63 | 144 | 4.3 | 10.4 | 0.00 | 0.00 | 0.00 | 63 | 1013.8 |
| 20260506040840 | 63 | 130 | 4.3 | 10.4 | 0.00 | 0.00 | 0.00 | 63 | 1013.8 |
| 20260506040740 | 63 | 135 | 4.3 | 10.4 | 0.00 | 0.00 | 0.00 | 63 | 1013.9 |
| 20260506040640 | 63 | 169 | 4.3 | 10.4 | 0.00 | 0.00 | 0.00 | 63 | 1013.8 |
| 20260506040540 | 63 | 161 | 4.3 | 10.4 | 0.00 | 0.00 | 0.00 | 63 | 1013.8 |
| 20260506040441 | 63 | 182 | 4.3 | 9.6 | 0.00 | 0.00 | 0.00 | 63 | 1013.8 |
| 20260506040340 | 63 | 165 | 4.3 | 9.6 | 0.00 | 0.00 | 0.00 | 63 | 1013.7 |
| 20260506040242 | 63 | 157 | 4.3 | 9.6 | 0.00 | 0.00 | 0.00 | 63 | 1013.8 |
| 20260506040141 | 63 | 149 | 4.3 | 9.6 | 0.00 | 0.00 | 0.00 | 63 | 1013.8 |
| 20260506040041 | 63 | 150 | 4.3 | 9.6 | 0.00 | 0.00 | 0.00 | 62 | 1013.8 |
| 20260506035936 | 63 | 142 | 4.3 | 9.6 | 0.00 | 0.00 | 0.00 | 62 | 1013.8 |
| 20260506035834 | 63 | 177 | 5.2 | 9.6 | 0.00 | 0.00 | 0.00 | 62 | 1013.8 |
| 20260506035736 | 63 | 272 | 5.2 | 11.3 | 0.00 | 0.00 | 0.00 | 62 | 1013.7 |
| 20260506035636 | 63 | 150 | 5.2 | 11.3 | 0.00 | 0.00 | 0.00 | 62 | 1013.7 |
| 20260506035536 | 63 | 173 | 5.2 | 11.3 | 0.00 | 0.00 | 0.00 | 62 | 1013.7 |
| 20260506035430 | 63 | 157 | 5.2 | 11.3 | 0.00 | 0.00 | 0.00 | 62 | 1013.7 |
| 20260506035331 | 63 | 174 | 5.2 | 11.3 | 0.00 | 0.00 | 0.00 | 62 | 1013.7 |
| 20260506035231 | 63 | 180 | 5.2 | 11.3 | 0.00 | 0.00 | 0.00 | 62 | 1013.8 |
| 20260506035132 | 63 | 161 | 5.2 | 11.3 | 0.00 | 0.00 | 0.00 | 62 | 1013.8 |
| 20260506035029 | 63 | 150 | 5.2 | 13.0 | 0.00 | 0.00 | 0.00 | 62 | 1013.8 |
| 20260506034923 | 63 | 150 | 5.2 | 13.0 | 0.00 | 0.00 | 0.00 | 62 | 1013.8 |
| 20260506034822 | 63 | 149 | 5.2 | 13.0 | 0.00 | 0.00 | 0.00 | 62 | 1013.8 |
| 20260506034723 | 63 | 148 | 4.3 | 13.0 | 0.00 | 0.00 | 0.00 | 62 | 1013.9 |
| 20260506034622 | 63 | 169 | 4.3 | 13.0 | 0.00 | 0.00 | 0.00 | 62 | 1013.8 |
| 20260506034523 | 63 | 140 | 4.3 | 13.0 | 0.00 | 0.00 | 0.00 | 62 | 1013.9 |
| 20260506034422 | 63 | 162 | 4.3 | 13.0 | 0.00 | 0.00 | 0.00 | 62 | 1013.9 |
| 20260506034322 | 63 | 157 | 4.3 | 13.0 | 0.00 | 0.00 | 0.00 | 61 | 1013.9 |
| 20260506034222 | 63 | 125 | 4.3 | 13.0 | 0.00 | 0.00 | 0.00 | 62 | 1013.9 |
| 20260506034123 | 63 | 159 | 4.3 | 13.0 | 0.00 | 0.00 | 0.00 | 62 | 1013.9 |
| 20260506034023 | 63 | 144 | 4.3 | 9.6 | 0.00 | 0.00 | 0.00 | 62 | 1014.0 |
| 20260506033922 | 63 | 115 | 4.3 | 9.6 | 0.00 | 0.00 | 0.00 | 62 | 1013.9 |
| 20260506033823 | 63 | 146 | 3.5 | 8.7 | 0.00 | 0.00 | 0.00 | 62 | 1014.0 |
| 20260506033722 | 63 | 142 | 4.3 | 8.7 | 0.00 | 0.00 | 0.00 | 62 | 1014.0 |
| 20260506033620 | 63 | 176 | 4.3 | 8.7 | 0.00 | 0.00 | 0.00 | 61 | 1014.1 |
| 20260506033520 | 63 | 167 | 4.3 | 8.7 | 0.00 | 0.00 | 0.00 | 61 | 1014.0 |
| 20260506033421 | 63 | 147 | 4.3 | 8.7 | 0.00 | 0.00 | 0.00 | 61 | 1013.9 |
| 20260506033322 | 63 | 196 | 3.5 | 8.7 | 0.00 | 0.00 | 0.00 | 61 | 1014.0 |
| 20260506033214 | 63 | 178 | 3.5 | 8.7 | 0.00 | 0.00 | 0.00 | 61 | 1013.9 |
| 20260506033114 | 63 | 138 | 3.5 | 8.7 | 0.00 | 0.00 | 0.00 | 61 | 1013.9 |
| 20260506033015 | 63 | 202 | 3.5 | 8.7 | 0.00 | 0.00 | 0.00 | 61 | 1014.0 |
| 20260506032916 | 63 | 178 | 3.5 | 8.7 | 0.00 | 0.00 | 0.00 | 61 | 1014.0 |
| 20260506032815 | 63 | 155 | 3.5 | 8.7 | 0.00 | 0.00 | 0.00 | 61 | 1014.0 |
| 20260506032713 | 63 | 102 | 3.5 | 6.1 | 0.00 | 0.00 | 0.00 | 61 | 1013.9 |
| 20260506032612 | 63 | 103 | 3.5 | 6.1 | 0.00 | 0.00 | 0.00 | 61 | 1013.9 |
| 20260506032513 | 63 | 153 | 3.5 | 8.7 | 0.00 | 0.00 | 0.00 | 61 | 1014.0 |
| 20260506032411 | 63 | 144 | 3.5 | 9.6 | 0.00 | 0.00 | 0.00 | 61 | 1013.9 |
| 20260506032309 | 63 | 142 | 3.5 | 9.6 | 0.00 | 0.00 | 0.00 | 61 | 1014.0 |
| 20260506032208 | 63 | 148 | 3.5 | 9.6 | 0.00 | 0.00 | 0.00 | 61 | 1014.0 |
| 20260506032109 | 63 | 170 | 3.5 | 9.6 | 0.00 | 0.00 | 0.00 | 61 | 1014.0 |
| 20260506032008 | 63 | 130 | 3.5 | 9.6 | 0.00 | 0.00 | 0.00 | 61 | 1014.0 |
| 20260506031906 | 63 | 156 | 3.5 | 9.6 | 0.00 | 0.00 | 0.00 | 61 | 1013.9 |
| 20260506031806 | 63 | 142 | 3.5 | 9.6 | 0.00 | 0.00 | 0.00 | 61 | 1013.9 |
| 20260506031707 | 63 | 171 | 3.5 | 9.6 | 0.00 | 0.00 | 0.00 | 61 | 1013.9 |
| 20260506031607 | 63 | 157 | 3.5 | 9.6 | 0.00 | 0.00 | 0.00 | 61 | 1013.9 |
| 20260506031508 | 63 | 157 | 3.5 | 8.7 | 0.00 | 0.00 | 0.00 | 61 | 1013.9 |
| 20260506031406 | 63 | 166 | 3.5 | 8.7 | 0.00 | 0.00 | 0.00 | 61 | 1013.9 |
| 20260506031306 | 63 | 150 | 3.5 | 8.7 | 0.00 | 0.00 | 0.00 | 61 | 1013.9 |
| 20260506031206 | 63 | 146 | 4.3 | 8.7 | 0.00 | 0.00 | 0.00 | 61 | 1013.8 |
| 20260506031107 | 63 | 153 | 4.3 | 8.7 | 0.00 | 0.00 | 0.00 | 61 | 1013.8 |
| 20260506031002 | 63 | 155 | 4.3 | 8.7 | 0.00 | 0.00 | 0.00 | 61 | 1013.9 |
| 20260506030900 | 63 | 144 | 4.3 | 8.7 | 0.00 | 0.00 | 0.00 | 61 | 1013.9 |
| 20260506030801 | 63 | 134 | 4.3 | 8.7 | 0.00 | 0.00 | 0.00 | 60 | 1013.9 |
| 20260506030701 | 63 | 175 | 4.3 | 8.7 | 0.00 | 0.00 | 0.00 | 61 | 1013.9 |
| 20260506030601 | 63 | 130 | 4.3 | 7.8 | 0.00 | 0.00 | 0.00 | 61 | 1013.9 |
| 20260506030459 | 63 | 155 | 4.3 | 7.8 | 0.00 | 0.00 | 0.00 | 61 | 1014.0 |
| 20260506030359 | 63 | 146 | 4.3 | 7.8 | 0.00 | 0.00 | 0.00 | 60 | 1014.0 |
| 20260506030259 | 63 | 138 | 4.3 | 8.7 | 0.00 | 0.00 | 0.00 | 61 | 1014.0 |
| 20260506030159 | 63 | 136 | 3.5 | 8.7 | 0.00 | 0.00 | 0.00 | 61 | 1013.9 |
| 20260506030058 | 63 | 143 | 3.5 | 8.7 | 0.00 | 0.00 | 0.00 | 61 | 1013.9 |
| 20260506030000 | 63 | 161 | 3.5 | 8.7 | 0.00 | 0.00 | 0.00 | 61 | 1014.0 |
| 20260506025858 | 63 | 138 | 3.5 | 8.7 | 0.00 | 0.00 | 0.00 | 60 | 1014.0 |
| 20260506025757 | 63 | 142 | 3.5 | 8.7 | 0.00 | 0.00 | 0.00 | 60 | 1013.9 |
| 20260506025654 | 63 | 146 | 3.5 | 8.7 | 0.00 | 0.00 | 0.00 | 60 | 1013.8 |
| 20260506025555 | 63 | 180 | 3.5 | 8.7 | 0.00 | 0.00 | 0.00 | 61 | 1013.9 |
| 20260506025454 | 63 | 115 | 3.5 | 8.7 | 0.00 | 0.00 | 0.00 | 61 | 1013.9 |
| 20260506025354 | 63 | 168 | 3.5 | 8.7 | 0.00 | 0.00 | 0.00 | 61 | 1013.9 |
| 20260506025255 | 63 | 143 | 3.5 | 9.6 | 0.00 | 0.00 | 0.00 | 61 | 1014.0 |
| 20260506025153 | 63 | 161 | 3.5 | 9.6 | 0.00 | 0.00 | 0.00 | 61 | 1014.0 |
| 20260506025053 | 64 | 155 | 3.5 | 9.6 | 0.00 | 0.00 | 0.00 | 60 | 1014.0 |
| 20260506024952 | 64 | 121 | 3.5 | 9.6 | 0.00 | 0.00 | 0.00 | 61 | 1014.0 |
| 20260506024854 | 64 | 127 | 4.3 | 9.6 | 0.00 | 0.00 | 0.00 | 60 | 1014.0 |
| 20260506024748 | 64 | 158 | 4.3 | 9.6 | 0.00 | 0.00 | 0.00 | 60 | 1014.0 |
| 20260506024646 | 64 | 142 | 4.3 | 9.6 | 0.00 | 0.00 | 0.00 | 61 | 1014.0 |
| 20260506024548 | 64 | 147 | 4.3 | 9.6 | 0.00 | 0.00 | 0.00 | 60 | 1014.0 |
| 20260506024445 | 64 | 133 | 4.3 | 9.6 | 0.00 | 0.00 | 0.00 | 60 | 1014.0 |
| 20260506024345 | 64 | 119 | 3.5 | 9.6 | 0.00 | 0.00 | 0.00 | 60 | 1014.0 |
| 20260506024239 | 64 | 150 | 3.5 | 7.8 | 0.00 | 0.00 | 0.00 | 60 | 1014.0 |
| 20260506024139 | 64 | 149 | 3.5 | 7.8 | 0.00 | 0.00 | 0.00 | 60 | 1014.0 |
| 20260506024040 | 64 | 142 | 3.5 | 7.8 | 0.00 | 0.00 | 0.00 | 60 | 1013.8 |
| 20260506023938 | 64 | 135 | 3.5 | 7.8 | 0.00 | 0.00 | 0.00 | 60 | 1013.9 |
| 20260506023838 | 64 | 126 | 3.5 | 7.8 | 0.00 | 0.00 | 0.00 | 60 | 1014.0 |
| 20260506023739 | 64 | 167 | 3.5 | 7.8 | 0.00 | 0.00 | 0.00 | 60 | 1014.0 |
| 20260506023639 | 64 | 144 | 2.6 | 7.8 | 0.00 | 0.00 | 0.00 | 60 | 1014.0 |
| 20260506023540 | 64 | 161 | 2.6 | 7.0 | 0.00 | 0.00 | 0.00 | 59 | 1014.0 |
| 20260506023439 | 64 | 166 | 2.6 | 7.0 | 0.00 | 0.00 | 0.00 | 59 | 1014.1 |
| 20260506023339 | 64 | 148 | 2.6 | 6.1 | 0.00 | 0.00 | 0.00 | 60 | 1014.1 |
| 20260506023240 | 64 | 123 | 2.6 | 6.1 | 0.00 | 0.00 | 0.00 | 59 | 1014.1 |
| 20260506023138 | 64 | 123 | 2.6 | 6.1 | 0.00 | 0.00 | 0.00 | 59 | 1014.1 |
| 20260506023038 | 64 | 154 | 2.6 | 6.1 | 0.00 | 0.00 | 0.00 | 59 | 1014.2 |
| 20260506022939 | 64 | 121 | 2.6 | 6.1 | 0.00 | 0.00 | 0.00 | 59 | 1014.2 |
| 20260506022839 | 64 | 155 | 2.6 | 6.1 | 0.00 | 0.00 | 0.00 | 59 | 1014.3 |
| 20260506022738 | 64 | 171 | 2.6 | 7.8 | 0.00 | 0.00 | 0.00 | 59 | 1014.3 |
| 20260506022640 | 64 | 145 | 2.6 | 9.6 | 0.00 | 0.00 | 0.00 | 59 | 1014.3 |
| 20260506022539 | 64 | 144 | 3.5 | 9.6 | 0.00 | 0.00 | 0.00 | 59 | 1014.3 |
| 20260506022440 | 64 | 162 | 3.5 | 9.6 | 0.00 | 0.00 | 0.00 | 59 | 1014.1 |
| 20260506022338 | 64 | 143 | 3.5 | 9.6 | 0.00 | 0.00 | 0.00 | 59 | 1014.2 |
| 20260506022239 | 64 | 144 | 3.5 | 9.6 | 0.00 | 0.00 | 0.00 | 59 | 1014.1 |
| 20260506022140 | 64 | 142 | 3.5 | 9.6 | 0.00 | 0.00 | 0.00 | 59 | 1014.1 |
| 20260506022038 | 64 | 142 | 3.5 | 9.6 | 0.00 | 0.00 | 0.00 | 59 | 1014.1 |
| 20260506021940 | 64 | 116 | 3.5 | 9.6 | 0.00 | 0.00 | 0.00 | 59 | 1014.1 |
| 20260506021838 | 64 | 182 | 3.5 | 9.6 | 0.00 | 0.00 | 0.00 | 59 | 1014.1 |
| 20260506021740 | 64 | 136 | 3.5 | 8.7 | 0.00 | 0.00 | 0.00 | 59 | 1014.3 |
| 20260506021635 | 64 | 162 | 3.5 | 7.8 | 0.00 | 0.00 | 0.00 | 59 | 1014.2 |
| 20260506021534 | 64 | 101 | 3.5 | 7.8 | 0.00 | 0.00 | 0.00 | 59 | 1014.2 |
| 20260506021434 | 64 | 159 | 3.5 | 7.8 | 0.00 | 0.00 | 0.00 | 59 | 1014.3 |
| 20260506021335 | 64 | 118 | 3.5 | 7.8 | 0.00 | 0.00 | 0.00 | 59 | 1014.2 |
| 20260506021235 | 64 | 144 | 3.5 | 7.8 | 0.00 | 0.00 | 0.00 | 59 | 1014.2 |
| 20260506021135 | 64 | 119 | 3.5 | 7.8 | 0.00 | 0.00 | 0.00 | 59 | 1014.2 |
| 20260506021034 | 64 | 294 | 3.5 | 7.8 | 0.00 | 0.00 | 0.00 | 59 | 1014.2 |
| 20260506020934 | 64 | 130 | 3.5 | 7.8 | 0.00 | 0.00 | 0.00 | 59 | 1014.2 |
| 20260506020834 | 64 | 124 | 3.5 | 7.8 | 0.00 | 0.00 | 0.00 | 59 | 1014.2 |
| 20260506020735 | 64 | 111 | 3.5 | 7.8 | 0.00 | 0.00 | 0.00 | 59 | 1014.2 |
| 20260506020635 | 64 | 153 | 3.5 | 7.8 | 0.00 | 0.00 | 0.00 | 59 | 1014.2 |
| 20260506020534 | 64 | 185 | 3.5 | 9.6 | 0.00 | 0.00 | 0.00 | 59 | 1014.1 |
| 20260506020434 | 64 | 192 | 3.5 | 9.6 | 0.00 | 0.00 | 0.00 | 59 | 1014.1 |
| 20260506020335 | 64 | 126 | 3.5 | 9.6 | 0.00 | 0.00 | 0.00 | 59 | 1014.1 |
| 20260506020234 | 64 | 118 | 4.3 | 10.4 | 0.00 | 0.00 | 0.00 | 59 | 1014.1 |
| 20260506020134 | 64 | 120 | 4.3 | 10.4 | 0.00 | 0.00 | 0.00 | 59 | 1014.1 |
| 20260506020034 | 64 | 185 | 4.3 | 10.4 | 0.00 | 0.00 | 0.00 | 59 | 1014.1 |
| 20260506015934 | 64 | 185 | 4.3 | 10.4 | 0.00 | 0.00 | 0.00 | 59 | 1014.1 |
| 20260506015834 | 64 | 133 | 4.3 | 10.4 | 0.00 | 0.00 | 0.00 | 59 | 1014.1 |
| 20260506015734 | 64 | 107 | 4.3 | 10.4 | 0.00 | 0.00 | 0.00 | 59 | 1014.1 |
| 20260506015635 | 64 | 144 | 3.5 | 10.4 | 0.00 | 0.00 | 0.00 | 59 | 1014.1 |
| 20260506015535 | 64 | 140 | 3.5 | 10.4 | 0.00 | 0.00 | 0.00 | 59 | 1014.0 |
| 20260506015434 | 64 | 153 | 3.5 | 10.4 | 0.00 | 0.00 | 0.00 | 59 | 1014.1 |
| 20260506015334 | 64 | 158 | 3.5 | 10.4 | 0.00 | 0.00 | 0.00 | 59 | 1014.1 |
| 20260506015235 | 64 | 126 | 3.5 | 10.4 | 0.00 | 0.00 | 0.00 | 59 | 1014.1 |
| 20260506015136 | 64 | 115 | 3.5 | 10.4 | 0.00 | 0.00 | 0.00 | 59 | 1014.2 |
| 20260506015035 | 64 | 170 | 3.5 | 10.4 | 0.00 | 0.00 | 0.00 | 59 | 1014.2 |
| 20260506014934 | 64 | 150 | 3.5 | 10.4 | 0.00 | 0.00 | 0.00 | 59 | 1014.1 |
| 20260506014835 | 64 | 221 | 3.5 | 7.8 | 0.00 | 0.00 | 0.00 | 59 | 1014.2 |
| 20260506014734 | 64 | 171 | 3.5 | 7.8 | 0.00 | 0.00 | 0.00 | 59 | 1014.1 |
| 20260506014634 | 64 | 152 | 3.5 | 10.4 | 0.00 | 0.00 | 0.00 | 59 | 1014.1 |
| 20260506014534 | 64 | 150 | 3.5 | 10.4 | 0.00 | 0.00 | 0.00 | 59 | 1014.1 |
| 20260506014436 | 64 | 156 | 3.5 | 10.4 | 0.00 | 0.00 | 0.00 | 59 | 1014.1 |
| 20260506014332 | 64 | 151 | 3.5 | 10.4 | 0.00 | 0.00 | 0.00 | 59 | 1014.2 |
| 20260506014232 | 64 | 162 | 3.5 | 10.4 | 0.00 | 0.00 | 0.00 | 58 | 1014.1 |
| 20260506014130 | 64 | 145 | 3.5 | 10.4 | 0.00 | 0.00 | 0.00 | 58 | 1014.1 |
| 20260506014030 | 64 | 168 | 3.5 | 10.4 | 0.00 | 0.00 | 0.00 | 58 | 1014.2 |
| 20260506013930 | 64 | 163 | 3.5 | 10.4 | 0.00 | 0.00 | 0.00 | 58 | 1014.2 |
| 20260506013830 | 64 | 172 | 3.5 | 10.4 | 0.00 | 0.00 | 0.00 | 58 | 1014.1 |
| 20260506013731 | 64 | 148 | 3.5 | 10.4 | 0.00 | 0.00 | 0.00 | 58 | 1014.2 |
| 20260506013631 | 64 | 222 | 3.5 | 9.6 | 0.00 | 0.00 | 0.00 | 58 | 1014.2 |
| 20260506013531 | 64 | 159 | 3.5 | 9.6 | 0.00 | 0.00 | 0.00 | 58 | 1014.2 |
| 20260506013430 | 64 | 180 | 3.5 | 9.6 | 0.00 | 0.00 | 0.00 | 58 | 1014.2 |
| 20260506013331 | 64 | 134 | 3.5 | 9.6 | 0.00 | 0.00 | 0.00 | 58 | 1014.1 |
| 20260506013230 | 64 | 148 | 3.5 | 9.6 | 0.00 | 0.00 | 0.00 | 58 | 1014.2 |
| 20260506013130 | 65 | 166 | 3.5 | 8.7 | 0.00 | 0.00 | 0.00 | 58 | 1014.3 |
| 20260506013031 | 65 | 113 | 3.5 | 8.7 | 0.00 | 0.00 | 0.00 | 58 | 1014.1 |
| 20260506012930 | 65 | 159 | 3.5 | 8.7 | 0.00 | 0.00 | 0.00 | 58 | 1014.1 |
| 20260506012832 | 65 | 153 | 3.5 | 8.7 | 0.00 | 0.00 | 0.00 | 58 | 1014.2 |
| 20260506012730 | 65 | 205 | 3.5 | 8.7 | 0.00 | 0.00 | 0.00 | 58 | 1014.1 |
| 20260506012632 | 65 | 166 | 3.5 | 8.7 | 0.00 | 0.00 | 0.00 | 58 | 1014.1 |
| 20260506012530 | 65 | 174 | 3.5 | 8.7 | 0.00 | 0.00 | 0.00 | 58 | 1014.1 |
| 20260506012431 | 65 | 140 | 4.3 | 8.7 | 0.00 | 0.00 | 0.00 | 57 | 1014.1 |
| 20260506012330 | 65 | 123 | 3.5 | 8.7 | 0.00 | 0.00 | 0.00 | 57 | 1014.0 |
| 20260506012230 | 65 | 167 | 3.5 | 8.7 | 0.00 | 0.00 | 0.00 | 58 | 1014.1 |
| 20260506012131 | 65 | 150 | 3.5 | 8.7 | 0.00 | 0.00 | 0.00 | 58 | 1014.1 |
| 20260506012030 | 65 | 124 | 3.5 | 8.7 | 0.00 | 0.00 | 0.00 | 57 | 1014.0 |
| 20260506011930 | 65 | 135 | 3.5 | 8.7 | 0.00 | 0.00 | 0.00 | 58 | 1014.1 |
| 20260506011832 | 65 | 130 | 3.5 | 8.7 | 0.00 | 0.00 | 0.00 | 57 | 1014.1 |
| 20260506011730 | 65 | 173 | 3.5 | 10.4 | 0.00 | 0.00 | 0.00 | 57 | 1014.2 |
| 20260506011631 | 65 | 201 | 3.5 | 10.4 | 0.00 | 0.00 | 0.00 | 57 | 1014.2 |
| 20260506011530 | 65 | 149 | 3.5 | 10.4 | 0.00 | 0.00 | 0.00 | 57 | 1014.2 |
| 20260506011431 | 65 | 196 | 3.5 | 10.4 | 0.00 | 0.00 | 0.00 | 57 | 1014.2 |
| 20260506011330 | 65 | 164 | 3.5 | 10.4 | 0.00 | 0.00 | 0.00 | 57 | 1014.1 |
| 20260506011232 | 65 | 150 | 3.5 | 10.4 | 0.00 | 0.00 | 0.00 | 57 | 1014.2 |
| 20260506011131 | 65 | 121 | 3.5 | 10.4 | 0.00 | 0.00 | 0.00 | 57 | 1014.1 |
| 20260506011026 | 65 | 164 | 3.5 | 10.4 | 0.00 | 0.00 | 0.00 | 57 | 1014.2 |
| 20260506010927 | 65 | 133 | 3.5 | 10.4 | 0.00 | 0.00 | 0.00 | 57 | 1014.1 |
| 20260506010826 | 65 | 156 | 3.5 | 10.4 | 0.00 | 0.00 | 0.00 | 57 | 1014.1 |
| 20260506010726 | 65 | 151 | 3.5 | 8.7 | 0.00 | 0.00 | 0.00 | 57 | 1014.1 |
| 20260506010627 | 65 | 136 | 3.5 | 8.7 | 0.00 | 0.00 | 0.00 | 57 | 1014.1 |
| 20260506010526 | 65 | 178 | 3.5 | 8.7 | 0.00 | 0.00 | 0.00 | 57 | 1014.1 |
| 20260506010427 | 65 | 165 | 3.5 | 8.7 | 0.00 | 0.00 | 0.00 | 57 | 1014.1 |
| 20260506010327 | 65 | 155 | 3.5 | 8.7 | 0.00 | 0.00 | 0.00 | 57 | 1014.1 |
| 20260506010226 | 65 | 169 | 3.5 | 8.7 | 0.00 | 0.00 | 0.00 | 57 | 1014.1 |
| 20260506010127 | 65 | 139 | 3.5 | 8.7 | 0.00 | 0.00 | 0.00 | 57 | 1014.1 |
| 20260506010027 | 65 | 169 | 3.5 | 8.7 | 0.00 | 0.00 | 0.00 | 57 | 1014.0 |
| 20260506005928 | 65 | 180 | 3.5 | 8.7 | 0.00 | 0.00 | 0.00 | 57 | 1014.0 |
| 20260506005826 | 65 | 157 | 3.5 | 7.8 | 0.00 | 0.00 | 0.00 | 57 | 1014.1 |
| 20260506005726 | 65 | 146 | 3.5 | 7.8 | 0.00 | 0.00 | 0.00 | 57 | 1014.0 |
| 20260506005626 | 65 | 163 | 3.5 | 7.8 | 0.00 | 0.00 | 0.00 | 57 | 1014.2 |
| 20260506005528 | 65 | 153 | 3.5 | 7.8 | 0.00 | 0.00 | 0.00 | 57 | 1014.1 |
| 20260506005427 | 65 | 153 | 3.5 | 7.8 | 0.00 | 0.00 | 0.00 | 57 | 1014.1 |
| 20260506005326 | 65 | 117 | 3.5 | 7.8 | 0.00 | 0.00 | 0.00 | 56 | 1014.1 |
| 20260506005226 | 65 | 157 | 3.5 | 7.8 | 0.00 | 0.00 | 0.00 | 56 | 1014.1 |
| 20260506005126 | 65 | 171 | 3.5 | 7.8 | 0.00 | 0.00 | 0.00 | 56 | 1014.2 |
| 20260506005028 | 65 | 174 | 3.5 | 7.8 | 0.00 | 0.00 | 0.00 | 56 | 1014.0 |
| 20260506004927 | 65 | 153 | 3.5 | 7.8 | 0.00 | 0.00 | 0.00 | 56 | 1014.1 |
| 20260506004826 | 65 | 157 | 3.5 | 7.0 | 0.00 | 0.00 | 0.00 | 56 | 1014.1 |
| 20260506004727 | 65 | 147 | 3.5 | 7.8 | 0.00 | 0.00 | 0.00 | 56 | 1014.0 |
| 20260506004627 | 65 | 134 | 3.5 | 7.8 | 0.00 | 0.00 | 0.00 | 56 | 1014.1 |
| 20260506004527 | 65 | 157 | 3.5 | 7.8 | 0.00 | 0.00 | 0.00 | 56 | 1014.0 |
| 20260506004427 | 65 | 146 | 3.5 | 7.8 | 0.00 | 0.00 | 0.00 | 56 | 1014.0 |
| 20260506004327 | 65 | 131 | 3.5 | 7.8 | 0.00 | 0.00 | 0.00 | 56 | 1014.0 |
| 20260506004227 | 65 | 142 | 3.5 | 7.8 | 0.00 | 0.00 | 0.00 | 56 | 1014.0 |
| 20260506004126 | 65 | 166 | 3.5 | 7.8 | 0.00 | 0.00 | 0.00 | 56 | 1013.9 |
| 20260506004026 | 65 | 149 | 3.5 | 7.8 | 0.00 | 0.00 | 0.00 | 55 | 1014.0 |
| 20260506003927 | 65 | 181 | 3.5 | 7.8 | 0.00 | 0.00 | 0.00 | 55 | 1014.0 |
| 20260506003828 | 65 | 186 | 3.5 | 7.8 | 0.00 | 0.00 | 0.00 | 55 | 1013.8 |
| 20260506003722 | 65 | 151 | 3.5 | 7.0 | 0.00 | 0.00 | 0.00 | 55 | 1013.9 |
| 20260506003623 | 65 | 132 | 3.5 | 7.0 | 0.00 | 0.00 | 0.00 | 55 | 1013.9 |
| 20260506003523 | 65 | 135 | 3.5 | 7.0 | 0.00 | 0.00 | 0.00 | 55 | 1013.8 |
| 20260506003423 | 65 | 160 | 3.5 | 7.0 | 0.00 | 0.00 | 0.00 | 55 | 1014.0 |
| 20260506003323 | 65 | 146 | 3.5 | 7.0 | 0.00 | 0.00 | 0.00 | 55 | 1013.9 |
| 20260506003223 | 65 | 168 | 3.5 | 7.0 | 0.00 | 0.00 | 0.00 | 54 | 1013.9 |
| 20260506003122 | 65 | 133 | 3.5 | 7.0 | 0.00 | 0.00 | 0.00 | 54 | 1014.0 |
| 20260506003023 | 65 | 200 | 2.6 | 7.0 | 0.00 | 0.00 | 0.00 | 54 | 1013.9 |
| 20260506002923 | 65 | 175 | 2.6 | 5.2 | 0.00 | 0.00 | 0.00 | 54 | 1013.9 |
| 20260506002823 | 65 | 175 | 2.6 | 5.2 | 0.00 | 0.00 | 0.00 | 54 | 1013.9 |
| 20260506002722 | 65 | 177 | 2.6 | 5.2 | 0.00 | 0.00 | 0.00 | 54 | 1013.9 |
| 20260506002624 | 66 | 161 | 2.6 | 5.2 | 0.00 | 0.00 | 0.00 | 54 | 1013.9 |
| 20260506002523 | 66 | 164 | 2.6 | 5.2 | 0.00 | 0.00 | 0.00 | 54 | 1013.9 |
| 20260506002422 | 66 | 168 | 2.6 | 5.2 | 0.00 | 0.00 | 0.00 | 54 | 1014.0 |
| 20260506002323 | 66 | 159 | 2.6 | 5.2 | 0.00 | 0.00 | 0.00 | 54 | 1013.9 |
| 20260506002224 | 66 | 167 | 1.7 | 5.2 | 0.00 | 0.00 | 0.00 | 54 | 1013.9 |
| 20260506002122 | 66 | 185 | 1.7 | 5.2 | 0.00 | 0.00 | 0.00 | 53 | 1013.9 |
| 20260506002022 | 66 | 157 | 1.7 | 5.2 | 0.00 | 0.00 | 0.00 | 53 | 1014.0 |
| 20260506001923 | 66 | 136 | 1.7 | 5.2 | 0.00 | 0.00 | 0.00 | 53 | 1013.9 |
| 20260506001821 | 66 | 136 | 0.9 | 5.2 | 0.00 | 0.00 | 0.00 | 53 | 1014.0 |
| 20260506001722 | 66 | 150 | 0.9 | 5.2 | 0.00 | 0.00 | 0.00 | 53 | 1013.9 |
| 20260506001619 | 66 | 151 | 0.9 | 5.2 | 0.00 | 0.00 | 0.00 | 53 | 1014.0 |
| 20260506001517 | 66 | 148 | 0.9 | 5.2 | 0.00 | 0.00 | 0.00 | 53 | 1013.9 |
| 20260506001414 | 66 | 148 | 0.9 | 5.2 | 0.00 | 0.00 | 0.00 | 52 | 1014.0 |
| 20260506001311 | 66 | 188 | 0.9 | 6.1 | 0.00 | 0.00 | 0.00 | 53 | 1014.1 |
| 20260506001208 | 66 | 188 | 1.7 | 6.1 | 0.00 | 0.00 | 0.00 | 52 | 1014.0 |
| 20260506001106 | 66 | 159 | 0.9 | 6.1 | 0.00 | 0.00 | 0.00 | 52 | 1014.0 |
| 20260506001007 | 66 | 150 | 0.9 | 6.1 | 0.00 | 0.00 | 0.00 | 52 | 1014.0 |
| 20260506000904 | 66 | 164 | 0.9 | 6.1 | 0.00 | 0.00 | 0.00 | 52 | 1014.0 |
| 20260506000801 | 67 | 165 | 0.9 | 6.1 | 0.00 | 0.00 | 0.00 | 52 | 1013.9 |
| 20260506000658 | 67 | 175 | 0.9 | 6.1 | 0.00 | 0.00 | 0.00 | 52 | 1014.0 |
| 20260506000559 | 67 | 133 | 0.9 | 6.1 | 0.00 | 0.00 | 0.00 | 52 | 1014.0 |
| 20260506000459 | 67 | 150 | 0.9 | 7.8 | 0.00 | 0.00 | 0.00 | 52 | 1014.0 |
| 20260506000401 | 67 | 186 | 0.9 | 7.8 | 0.00 | 0.00 | 0.00 | 51 | 1014.0 |
| 20260506000255 | 67 | 169 | 0.9 | 7.8 | 0.00 | 0.00 | 0.00 | 51 | 1014.0 |
| 20260506000154 | 67 | 150 | 0.9 | 7.8 | 0.00 | 0.00 | 0.00 | 51 | 1014.0 |
| 20260506000055 | 67 | 196 | 0.9 | 7.8 | 0.00 | 0.00 | 0.00 | 51 | 1014.1 |
| 20260505235955 | 67 | 190 | 0.9 | 7.8 | 0.00 | 0.00 | 0.00 | 51 | 1014.1 |
| 20260505235853 | 67 | 165 | 1.7 | 7.8 | 0.00 | 0.00 | 0.00 | 51 | 1014.1 |
| 20260505235746 | 67 | 165 | 1.7 | 7.8 | 0.00 | 0.00 | 0.00 | 51 | 1014.1 |
| 20260505235647 | 67 | 177 | 1.7 | 7.8 | 0.00 | 0.00 | 0.00 | 51 | 1014.0 |
| 20260505235544 | 67 | 196 | 0.9 | 7.8 | 0.00 | 0.00 | 0.00 | 51 | 1014.0 |
| 20260505235443 | 67 | 157 | 0.9 | 7.0 | 0.00 | 0.00 | 0.00 | 51 | 1014.0 |
| 20260505235343 | 67 | 155 | 0.9 | 5.2 | 0.00 | 0.00 | 0.00 | 51 | 1013.9 |
| 20260505235243 | 67 | 180 | 0.9 | 5.2 | 0.00 | 0.00 | 0.00 | 51 | 1014.0 |
| 20260505235140 | 67 | 175 | 0.9 | 5.2 | 0.00 | 0.00 | 0.00 | 51 | 1014.0 |
| 20260505235037 | 67 | 165 | 0.9 | 7.0 | 0.00 | 0.00 | 0.00 | 50 | 1014.0 |
| 20260505234935 | 68 | 144 | 0.9 | 7.0 | 0.00 | 0.00 | 0.00 | 50 | 1013.9 |
| 20260505234838 | 68 | 164 | 1.7 | 7.0 | 0.00 | 0.00 | 0.00 | 50 | 1014.0 |
| 20260505234738 | 68 | 138 | 0.9 | 7.0 | 0.00 | 0.00 | 0.00 | 50 | 1014.0 |
| 20260505234635 | 68 | 178 | 0.9 | 7.0 | 0.00 | 0.00 | 0.00 | 50 | 1013.9 |
| 20260505234536 | 68 | 221 | 0.9 | 7.0 | 0.00 | 0.00 | 0.00 | 50 | 1014.0 |
| 20260505234433 | 68 | 159 | 0.9 | 7.0 | 0.00 | 0.00 | 0.00 | 50 | 1014.1 |
| 20260505234331 | 68 | 169 | 0.9 | 7.0 | 0.00 | 0.00 | 0.00 | 50 | 1014.0 |
| 20260505234221 | 68 | 196 | 0.9 | 7.0 | 0.00 | 0.00 | 0.00 | 50 | 1014.0 |
| 20260505234121 | 68 | 129 | 0.9 | 7.0 | 0.00 | 0.00 | 0.00 | 50 | 1014.0 |
| 20260505234022 | 68 | 136 | 0.9 | 7.0 | 0.00 | 0.00 | 0.00 | 49 | 1014.0 |
| 20260505233920 | 68 | 156 | 0.0 | 7.0 | 0.00 | 0.00 | 0.00 | 49 | 1014.0 |
| 20260505233821 | 68 | 270 | 0.0 | 1.7 | 0.00 | 0.00 | 0.00 | 49 | 1014.0 |
| 20260505233714 | 68 | 131 | 0.0 | 1.7 | 0.00 | 0.00 | 0.00 | 49 | 1014.0 |
| 20260505233614 | 69 | 128 | 0.0 | 1.7 | 0.00 | 0.00 | 0.00 | 48 | 1014.0 |
| 20260505233513 | 69 | 125 | 0.0 | 1.7 | 0.00 | 0.00 | 0.00 | 49 | 1013.9 |
| 20260505233415 | 69 | 213 | 0.0 | 1.7 | 0.00 | 0.00 | 0.00 | 49 | 1013.9 |
| 20260505233315 | 69 | 146 | 0.0 | 1.7 | 0.00 | 0.00 | 0.00 | 49 | 1014.0 |
| 20260505233210 | 69 | 146 | 0.0 | 1.7 | 0.00 | 0.00 | 0.00 | 48 | 1013.9 |
| 20260505233109 | 69 | 153 | 0.0 | 0.9 | 0.00 | 0.00 | 0.00 | 48 | 1013.9 |
| 20260505233010 | 69 | 154 | 0.0 | 0.9 | 0.00 | 0.00 | 0.00 | 49 | 1013.9 |
| 20260505232909 | 69 | 158 | 0.0 | 0.0 | 0.00 | 0.00 | 0.00 | 48 | 1013.8 |
| 20260505232809 | 69 | 160 | 0.0 | 0.0 | 0.00 | 0.00 | 0.00 | 48 | 1013.8 |
| 20260505232659 | 69 | 187 | 0.0 | 0.0 | 0.00 | 0.00 | 0.00 | 49 | 1013.8 |
| 20260505232558 | 69 | 146 | 0.0 | 0.0 | 0.00 | 0.00 | 0.00 | 49 | 1013.8 |
| 20260505232459 | 69 | 153 | 0.0 | 0.0 | 0.00 | 0.00 | 0.00 | 48 | 1013.8 |
| 20260505232359 | 69 | 133 | 0.0 | 0.0 | 0.00 | 0.00 | 0.00 | 48 | 1013.8 |
| 20260505232259 | 69 | 182 | 0.0 | 0.0 | 0.00 | 0.00 | 0.00 | 48 | 1013.9 |
| 20260505232157 | 69 | 127 | 0.0 | 0.0 | 0.00 | 0.00 | 0.00 | 48 | 1013.9 |
| 20260505232056 | 69 | 152 | 0.0 | 0.0 | 0.00 | 0.00 | 0.00 | 48 | 1013.8 |
| 20260505231956 | 69 | 177 | 0.0 | 0.0 | 0.00 | 0.00 | 0.00 | 48 | 1013.8 |
| 20260505231856 | 69 | 183 | 0.0 | 0.0 | 0.00 | 0.00 | 0.00 | 48 | 1013.7 |
| 20260505231753 | 69 | 178 | 0.0 | 0.0 | 0.00 | 0.00 | 0.00 | 48 | 1013.9 |
| 20260505231646 | 69 | 148 | 0.0 | 0.0 | 0.00 | 0.00 | 0.00 | 48 | 1013.9 |
| 20260505231547 | 69 | 155 | 0.0 | 0.0 | 0.00 | 0.00 | 0.00 | 48 | 1013.7 |
| 20260505231446 | 69 | 232 | 0.0 | 0.0 | 0.00 | 0.00 | 0.00 | 47 | 1013.9 |
| 20260505231347 | 69 | 211 | 0.0 | 0.0 | 0.00 | 0.00 | 0.00 | 48 | 1013.8 |
| 20260505231247 | 69 | 166 | 0.0 | 0.0 | 0.00 | 0.00 | 0.00 | 48 | 1013.8 |
| 20260505231140 | 69 | 171 | 0.0 | 0.0 | 0.00 | 0.00 | 0.00 | 48 | 1013.8 |
| 20260505231037 | 69 | 160 | 0.0 | 0.0 | 0.00 | 0.00 | 0.00 | 48 | 1013.9 |
| 20260505230937 | 69 | 148 | 0.0 | 0.0 | 0.00 | 0.00 | 0.00 | 48 | 1013.8 |
| 20260505230836 | 69 | 202 | 0.0 | 0.0 | 0.00 | 0.00 | 0.00 | 48 | 1013.8 |
| 20260505230736 | 69 | 176 | 0.0 | 0.0 | 0.00 | 0.00 | 0.00 | 47 | 1013.8 |
| 20260505230632 | 69 | 190 | 0.0 | 0.0 | 0.00 | 0.00 | 0.00 | 48 | 1013.7 |
| 20260505230534 | 69 | 156 | 0.0 | 0.0 | 0.00 | 0.00 | 0.00 | 48 | 1013.9 |
| 20260505230432 | 69 | 146 | 0.0 | 0.0 | 0.00 | 0.00 | 0.00 | 48 | 1013.8 |
| 20260505230333 | 69 | 160 | 0.0 | 0.0 | 0.00 | 0.00 | 0.00 | 48 | 1013.9 |
| 20260505230231 | 69 | 171 | 0.0 | 0.0 | 0.00 | 0.00 | 0.00 | 49 | 1013.8 |
| 20260505230128 | 69 | 175 | 0.0 | 0.0 | 0.00 | 0.00 | 0.00 | 48 | 1013.8 |
| 20260505230028 | 70 | 177 | 0.0 | 0.0 | 0.00 | 0.00 | 0.00 | 48 | 1013.8 |
| 20260505225930 | 70 | 186 | 0.0 | 0.0 | 0.00 | 0.00 | 0.00 | 49 | 1013.8 |
| 20260505225827 | 70 | 161 | 0.0 | 0.0 | 0.00 | 0.00 | 0.00 | 49 | 1013.9 |
| 20260505225725 | 70 | 198 | 0.0 | 0.0 | 0.00 | 0.00 | 0.00 | 49 | 1013.8 |
| 20260505225614 | 70 | 153 | 0.0 | 0.0 | 0.00 | 0.00 | 0.00 | 49 | 1013.8 |
| 20260505225514 | 70 | 171 | 0.0 | 0.0 | 0.00 | 0.00 | 0.00 | 48 | 1013.9 |
| 20260505225413 | 70 | 164 | 0.0 | 0.0 | 0.00 | 0.00 | 0.00 | 49 | 1013.9 |
| 20260505225314 | 70 | 173 | 0.0 | 0.0 | 0.00 | 0.00 | 0.00 | 49 | 1013.8 |
| 20260505225212 | 70 | 169 | 0.0 | 0.0 | 0.00 | 0.00 | 0.00 | 48 | 1013.7 |
| 20260505225106 | 70 | 165 | 0.0 | 0.0 | 0.00 | 0.00 | 0.00 | 48 | 1013.8 |
| 20260505225008 | 70 | 131 | 0.0 | 0.0 | 0.00 | 0.00 | 0.00 | 48 | 1013.7 |
| 20260505224906 | 70 | 156 | 0.0 | 0.0 | 0.00 | 0.00 | 0.00 | 49 | 1013.8 |
| 20260505224806 | 70 | 155 | 0.0 | 0.0 | 0.00 | 0.00 | 0.00 | 48 | 1013.8 |
| 20260505224707 | 70 | 128 | 0.0 | 0.0 | 0.00 | 0.00 | 0.00 | 49 | 1013.9 |
| 20260505224600 | 70 | 128 | 0.0 | 0.0 | 0.00 | 0.00 | 0.00 | 48 | 1013.9 |
| 20260505224500 | 70 | 128 | 0.0 | 0.0 | 0.00 | 0.00 | 0.00 | 48 | 1013.9 |
| 20260505224401 | 70 | 127 | 0.0 | 0.0 | 0.00 | 0.00 | 0.00 | 48 | 1013.9 |
| 20260505224301 | 70 | 152 | 0.0 | 0.0 | 0.00 | 0.00 | 0.00 | 48 | 1013.9 |
| 20260505224200 | 70 | 205 | 0.0 | 0.0 | 0.00 | 0.00 | 0.00 | 48 | 1013.8 |
| 20260505224052 | 70 | 158 | 0.0 | 0.0 | 0.00 | 0.00 | 0.00 | 47 | 1013.9 |
| 20260505223954 | 70 | 133 | 0.0 | 0.0 | 0.00 | 0.00 | 0.00 | 48 | 1013.8 |
| 20260505223852 | 70 | 165 | 0.0 | 0.0 | 0.00 | 0.00 | 0.00 | 47 | 1013.9 |
| 20260505223752 | 70 | 182 | 0.0 | 0.0 | 0.00 | 0.00 | 0.00 | 47 | 1013.9 |
| 20260505223650 | 70 | 153 | 0.0 | 0.0 | 0.00 | 0.00 | 0.00 | 47 | 1013.9 |
| 20260505223547 | 70 | 165 | 0.0 | 0.0 | 0.00 | 0.00 | 0.00 | 48 | 1013.9 |
| 20260505223444 | 70 | 144 | 0.0 | 0.0 | 0.00 | 0.00 | 0.00 | 48 | 1013.8 |
| 20260505223346 | 70 | 159 | 0.0 | 0.0 | 0.00 | 0.00 | 0.00 | 46 | 1013.8 |
| 20260505223245 | 70 | 156 | 0.0 | 0.0 | 0.00 | 0.00 | 0.00 | 47 | 1013.8 |
| 20260505223144 | 70 | 156 | 0.0 | 0.0 | 0.00 | 0.00 | 0.00 | 47 | 1013.8 |
| 20260505223042 | 70 | 147 | 0.0 | 0.0 | 0.00 | 0.00 | 0.00 | 47 | 1013.8 |
| 20260505222942 | 70 | 163 | 0.0 | 0.0 | 0.00 | 0.00 | 0.00 | 47 | 1013.8 |
| 20260505222842 | 70 | 190 | 0.0 | 0.0 | 0.00 | 0.00 | 0.00 | 48 | 1013.8 |
| 20260505222741 | 70 | 155 | 0.0 | 0.0 | 0.00 | 0.00 | 0.00 | 47 | 1013.9 |
| 20260505222638 | 70 | 111 | 0.0 | 0.0 | 0.00 | 0.00 | 0.00 | 46 | 1013.9 |
| 20260505222533 | 70 | 156 | 0.0 | 0.0 | 0.00 | 0.00 | 0.00 | 47 | 1013.9 |
| 20260505222433 | 70 | 171 | 0.0 | 0.0 | 0.00 | 0.00 | 0.00 | 46 | 1013.8 |
| 20260505222333 | 70 | 180 | 0.0 | 0.0 | 0.00 | 0.00 | 0.00 | 46 | 1013.9 |
| 20260505222232 | 70 | 181 | 0.0 | 0.0 | 0.00 | 0.00 | 0.00 | 47 | 1013.8 |
| 20260505222128 | 70 | 147 | 0.0 | 0.0 | 0.00 | 0.00 | 0.00 | 47 | 1013.8 |
| 20260505222029 | 70 | 148 | 0.0 | 0.0 | 0.00 | 0.00 | 0.00 | 46 | 1013.8 |
| 20260505221926 | 70 | 181 | 0.0 | 0.0 | 0.00 | 0.00 | 0.00 | 46 | 1013.8 |
| 20260505221827 | 70 | 163 | 0.0 | 0.0 | 0.00 | 0.00 | 0.00 | 47 | 1013.8 |
| 20260505221725 | 70 | 146 | 0.0 | 0.0 | 0.00 | 0.00 | 0.00 | 47 | 1013.8 |
| 20260505221622 | 70 | 190 | 0.0 | 0.0 | 0.00 | 0.00 | 0.00 | 47 | 1013.7 |
| 20260505221519 | 70 | 153 | 0.0 | 0.0 | 0.00 | 0.00 | 0.00 | 47 | 1013.7 |
| 20260505221416 | 70 | 165 | 0.0 | 0.0 | 0.00 | 0.00 | 0.00 | 47 | 1013.7 |
| 20260505221317 | 70 | 135 | 0.0 | 0.0 | 0.00 | 0.00 | 0.00 | 47 | 1013.7 |
| 20260505221216 | 70 | 155 | 0.0 | 0.0 | 0.00 | 0.00 | 0.00 | 46 | 1013.8 |
| 20260505221116 | 70 | 174 | 0.0 | 0.0 | 0.00 | 0.00 | 0.00 | 46 | 1013.8 |
| 20260505221009 | 70 | 195 | 0.0 | 0.0 | 0.00 | 0.00 | 0.00 | 46 | 1013.8 |
| 20260505220906 | 70 | 180 | 0.0 | 0.0 | 0.00 | 0.00 | 0.00 | 47 | 1013.8 |
| 20260505220807 | 70 | 142 | 0.0 | 0.0 | 0.00 | 0.00 | 0.00 | 46 | 1013.8 |
| 20260505220707 | 70 | 184 | 0.0 | 0.0 | 0.00 | 0.00 | 0.00 | 46 | 1013.8 |
| 20260505220606 | 70 | 175 | 0.0 | 0.0 | 0.00 | 0.00 | 0.00 | 47 | 1013.8 |
| 20260505220500 | 70 | 155 | 0.0 | 0.0 | 0.00 | 0.00 | 0.00 | 46 | 1013.8 |
| 20260505220400 | 70 | 186 | 0.0 | 0.0 | 0.00 | 0.00 | 0.00 | 45 | 1013.8 |
| 20260505220301 | 70 | 174 | 0.0 | 0.0 | 0.00 | 0.00 | 0.00 | 45 | 1013.8 |
| 20260505220201 | 71 | 182 | 0.0 | 0.0 | 0.00 | 0.00 | 0.00 | 46 | 1013.7 |
| 20260505220101 | 71 | 131 | 0.0 | 0.0 | 0.00 | 0.00 | 0.00 | 46 | 1013.9 |
| 20260505215957 | 71 | 181 | 0.0 | 0.0 | 0.00 | 0.00 | 0.00 | 46 | 1013.8 |
| 20260505215856 | 71 | 197 | 0.0 | 0.0 | 0.00 | 0.00 | 0.00 | 46 | 1013.8 |
| 20260505215756 | 71 | 176 | 0.0 | 0.0 | 0.00 | 0.00 | 0.00 | 45 | 1013.9 |
| 20260505215658 | 71 | 169 | 0.0 | 0.0 | 0.00 | 0.00 | 0.00 | 46 | 1013.8 |
| 20260505215555 | 71 | 194 | 0.0 | 0.0 | 0.00 | 0.00 | 0.00 | 45 | 1013.9 |
| 20260505215447 | 71 | 140 | 0.0 | 0.0 | 0.00 | 0.00 | 0.00 | 45 | 1013.8 |
| 20260505215345 | 71 | 179 | 0.0 | 0.0 | 0.00 | 0.00 | 0.00 | 45 | 1013.9 |
| 20260505215245 | 71 | 156 | 0.0 | 0.0 | 0.00 | 0.00 | 0.00 | 45 | 1014.0 |
| 20260505215144 | 71 | 178 | 0.0 | 0.0 | 0.00 | 0.00 | 0.00 | 46 | 1014.0 |
| 20260505215044 | 71 | 123 | 0.0 | 0.0 | 0.00 | 0.00 | 0.00 | 46 | 1014.0 |
| 20260505214938 | 71 | 187 | 0.0 | 0.0 | 0.00 | 0.00 | 0.00 | 47 | 1014.0 |
| 20260505214839 | 71 | 130 | 0.0 | 0.0 | 0.00 | 0.00 | 0.00 | 46 | 1014.0 |
| 20260505214739 | 71 | 182 | 0.0 | 0.0 | 0.00 | 0.00 | 0.00 | 46 | 1013.9 |
| 20260505214639 | 71 | 149 | 0.0 | 0.0 | 0.00 | 0.00 | 0.00 | 46 | 1013.9 |
| 20260505214539 | 71 | 150 | 0.0 | 0.0 | 0.00 | 0.00 | 0.00 | 45 | 1013.9 |
| 20260505214433 | 71 | 157 | 0.0 | 0.0 | 0.00 | 0.00 | 0.00 | 46 | 1014.0 |
| 20260505214332 | 71 | 220 | 0.0 | 0.0 | 0.00 | 0.00 | 0.00 | 46 | 1014.0 |
| 20260505214232 | 71 | 132 | 0.0 | 0.0 | 0.00 | 0.00 | 0.00 | 46 | 1014.0 |
| 20260505214133 | 71 | 133 | 0.0 | 0.0 | 0.00 | 0.00 | 0.00 | 45 | 1014.0 |
| 20260505214033 | 71 | 209 | 0.0 | 0.0 | 0.00 | 0.00 | 0.00 | 46 | 1013.9 |
| 20260505213927 | 71 | 180 | 0.0 | 0.0 | 0.00 | 0.00 | 0.00 | 45 | 1013.9 |
| 20260505213825 | 72 | 154 | 0.0 | 0.0 | 0.00 | 0.00 | 0.00 | 46 | 1013.9 |
| 20260505213727 | 72 | 167 | 0.0 | 0.0 | 0.00 | 0.00 | 0.00 | 44 | 1014.1 |
| 20260505213624 | 72 | 213 | 0.0 | 0.0 | 0.00 | 0.00 | 0.00 | 45 | 1013.9 |
| 20260505213522 | 72 | 161 | 0.0 | 0.0 | 0.00 | 0.00 | 0.00 | 45 | 1013.9 |
| 20260505213417 | 72 | 148 | 0.0 | 0.0 | 0.00 | 0.00 | 0.00 | 45 | 1014.0 |
| 20260505213316 | 72 | 146 | 0.0 | 0.0 | 0.00 | 0.00 | 0.00 | 44 | 1013.9 |
| 20260505213216 | 72 | 136 | 0.0 | 0.0 | 0.00 | 0.00 | 0.00 | 44 | 1013.9 |
| 20260505213117 | 72 | 169 | 0.0 | 0.0 | 0.00 | 0.00 | 0.00 | 46 | 1013.8 |
| 20260505213017 | 72 | 163 | 0.0 | 0.0 | 0.00 | 0.00 | 0.00 | 46 | 1013.9 |
| 20260505212911 | 72 | 165 | 0.0 | 0.0 | 0.00 | 0.00 | 0.00 | 45 | 1014.0 |
| 20260505212810 | 72 | 136 | 0.0 | 0.0 | 0.00 | 0.00 | 0.00 | 45 | 1014.0 |
| 20260505212711 | 72 | 142 | 0.0 | 0.0 | 0.00 | 0.00 | 0.00 | 45 | 1014.0 |
| 20260505212611 | 72 | 170 | 0.0 | 0.0 | 0.00 | 0.00 | 0.00 | 46 | 1014.0 |
| 20260505212510 | 72 | 80 | 0.0 | 0.0 | 0.00 | 0.00 | 0.00 | 47 | 1014.0 |
| 20260505212400 | 72 | 163 | 0.0 | 0.0 | 0.00 | 0.00 | 0.00 | 47 | 1014.1 |
| 20260505212301 | 72 | 44 | 0.0 | 0.0 | 0.00 | 0.00 | 0.00 | 46 | 1014.1 |
| 20260505212159 | 72 | 159 | 0.0 | 0.0 | 0.00 | 0.00 | 0.00 | 46 | 1014.0 |
| 20260505212101 | 72 | 114 | 0.0 | 0.0 | 0.00 | 0.00 | 0.00 | 46 | 1014.0 |
| 20260505212001 | 72 | 125 | 0.0 | 0.0 | 0.00 | 0.00 | 0.00 | 47 | 1014.0 |
| 20260505211858 | 72 | 105 | 0.0 | 0.0 | 0.00 | 0.00 | 0.00 | 47 | 1014.1 |
| 20260505211758 | 72 | 207 | 0.0 | 0.0 | 0.00 | 0.00 | 0.00 | 46 | 1014.1 |
| 20260505211657 | 72 | 154 | 0.0 | 0.0 | 0.00 | 0.00 | 0.00 | 48 | 1014.1 |
| 20260505211557 | 72 | 83 | 0.0 | 0.0 | 0.00 | 0.00 | 0.00 | 46 | 1014.1 |
| 20260505211454 | 72 | 205 | 0.0 | 0.0 | 0.00 | 0.00 | 0.00 | 45 | 1014.1 |
| 20260505211348 | 72 | 182 | 0.0 | 0.0 | 0.00 | 0.00 | 0.00 | 45 | 1014.1 |
| 20260505211250 | 72 | 118 | 0.0 | 0.0 | 0.00 | 0.00 | 0.00 | 46 | 1014.2 |
| 20260505211149 | 72 | 130 | 0.0 | 0.0 | 0.00 | 0.00 | 0.00 | 46 | 1014.0 |
| 20260505211048 | 72 | 120 | 0.0 | 0.0 | 0.00 | 0.00 | 0.00 | 45 | 1014.1 |
| 20260505210949 | 72 | 167 | 0.0 | 0.0 | 0.00 | 0.00 | 0.00 | 46 | 1014.1 |
| 20260505210841 | 72 | 178 | 0.0 | 0.0 | 0.00 | 0.00 | 0.00 | 46 | 1014.2 |
| 20260505210738 | 72 | 169 | 0.0 | 0.0 | 0.00 | 0.00 | 0.00 | 46 | 1014.0 |
| 20260505210639 | 72 | 169 | 0.0 | 0.0 | 0.00 | 0.00 | 0.00 | 45 | 1014.0 |
| 20260505210539 | 72 | 153 | 0.0 | 0.0 | 0.00 | 0.00 | 0.00 | 45 | 1014.1 |
| 20260505210439 | 72 | 156 | 0.0 | 0.0 | 0.00 | 0.00 | 0.00 | 46 | 1014.1 |
| 20260505210334 | 72 | 133 | 0.0 | 0.0 | 0.00 | 0.00 | 0.00 | 46 | 1014.0 |
| 20260505210234 | 72 | 144 | 0.0 | 0.0 | 0.00 | 0.00 | 0.00 | 45 | 1014.1 |
| 20260505210134 | 72 | 222 | 0.0 | 0.0 | 0.00 | 0.00 | 0.00 | 44 | 1014.0 |
| 20260505210036 | 72 | 192 | 0.0 | 0.0 | 0.00 | 0.00 | 0.00 | 45 | 1014.1 |
| 20260505205933 | 72 | 178 | 0.0 | 0.0 | 0.00 | 0.00 | 0.00 | 44 | 1014.1 |
| 20260505205827 | 72 | 152 | 0.0 | 0.0 | 0.00 | 0.00 | 0.00 | 45 | 1014.1 |
| 20260505205725 | 73 | 173 | 0.0 | 0.0 | 0.00 | 0.00 | 0.00 | 45 | 1014.1 |
| 20260505205627 | 73 | 146 | 0.0 | 0.0 | 0.00 | 0.00 | 0.00 | 45 | 1014.1 |
| 20260505205526 | 73 | 169 | 0.0 | 0.0 | 0.00 | 0.00 | 0.00 | 44 | 1014.1 |
| 20260505205426 | 73 | 205 | 0.0 | 0.0 | 0.00 | 0.00 | 0.00 | 44 | 1014.2 |
| 20260505205316 | 73 | 190 | 0.0 | 0.0 | 0.00 | 0.00 | 0.00 | 44 | 1014.1 |
| 20260505205216 | 73 | 170 | 0.0 | 0.0 | 0.00 | 0.00 | 0.00 | 43 | 1014.1 |
| 20260505205116 | 73 | 144 | 0.0 | 0.0 | 0.00 | 0.00 | 0.00 | 43 | 1014.1 |
| 20260505205017 | 73 | 233 | 0.0 | 0.0 | 0.00 | 0.00 | 0.00 | 45 | 1014.3 |
| 20260505204917 | 73 | 113 | 0.0 | 0.0 | 0.00 | 0.00 | 0.00 | 45 | 1014.2 |
| 20260505204817 | 73 | 161 | 0.0 | 0.0 | 0.00 | 0.00 | 0.00 | 43 | 1014.2 |
| 20260505204713 | 73 | 137 | 0.0 | 0.0 | 0.00 | 0.00 | 0.00 | 44 | 1014.2 |
| 20260505204614 | 73 | 134 | 0.0 | 0.0 | 0.00 | 0.00 | 0.00 | 43 | 1014.1 |
| 20260505204513 | 73 | 175 | 0.0 | 0.0 | 0.00 | 0.00 | 0.00 | 43 | 1014.2 |
| 20260505204411 | 74 | 197 | 0.0 | 0.0 | 0.00 | 0.00 | 0.00 | 43 | 1014.3 |
| 20260505204305 | 74 | 154 | 0.0 | 0.0 | 0.00 | 0.00 | 0.00 | 43 | 1014.3 |
| 20260505204205 | 74 | 138 | 0.0 | 0.0 | 0.00 | 0.00 | 0.00 | 42 | 1014.2 |
| 20260505204105 | 74 | 161 | 0.0 | 0.0 | 0.00 | 0.00 | 0.00 | 43 | 1014.3 |
| 20260505204004 | 74 | 176 | 0.0 | 0.0 | 0.00 | 0.00 | 0.00 | 44 | 1014.3 |
| 20260505203905 | 74 | 71 | 0.0 | 0.0 | 0.00 | 0.00 | 0.00 | 44 | 1014.4 |
| 20260505203758 | 74 | 154 | 0.0 | 0.0 | 0.00 | 0.00 | 0.00 | 44 | 1014.3 |
| 20260505203658 | 74 | 109 | 0.0 | 0.0 | 0.00 | 0.00 | 0.00 | 43 | 1014.3 |
| 20260505203601 | 74 | 192 | 0.0 | 0.0 | 0.00 | 0.00 | 0.00 | 43 | 1014.3 |
| 20260505203457 | 74 | 55 | 0.0 | 0.0 | 0.00 | 0.00 | 0.00 | 42 | 1014.3 |
| 20260505203355 | 74 | 142 | 0.0 | 0.0 | 0.00 | 0.00 | 0.00 | 42 | 1014.2 |
| 20260505203249 | 74 | 182 | 0.0 | 0.0 | 0.00 | 0.00 | 0.00 | 41 | 1014.2 |
| 20260505203148 | 74 | 165 | 0.0 | 0.0 | 0.00 | 0.00 | 0.00 | 41 | 1014.2 |
| 20260505203049 | 74 | 140 | 0.0 | 0.0 | 0.00 | 0.00 | 0.00 | 41 | 1014.2 |
| 20260505202949 | 74 | 311 | 0.0 | 0.0 | 0.00 | 0.00 | 0.00 | 43 | 1014.2 |
| 20260505202848 | 74 | 198 | 0.0 | 0.0 | 0.00 | 0.00 | 0.00 | 44 | 1014.2 |
| 20260505202744 | 74 | 157 | 0.0 | 0.0 | 0.00 | 0.00 | 0.00 | 43 | 1014.1 |
| 20260505202642 | 74 | 156 | 0.0 | 0.0 | 0.00 | 0.00 | 0.00 | 45 | 1014.2 |
| 20260505202543 | 74 | 167 | 0.0 | 0.0 | 0.00 | 0.00 | 0.00 | 42 | 1014.2 |
| 20260505202443 | 74 | 149 | 0.0 | 0.0 | 0.00 | 0.00 | 0.00 | 41 | 1014.0 |
| 20260505202343 | 74 | 196 | 0.0 | 0.0 | 0.00 | 0.00 | 0.00 | 43 | 1014.2 |
| 20260505202234 | 73 | 165 | 0.0 | 0.0 | 0.00 | 0.00 | 0.00 | 42 | 1014.2 |
| 20260505202133 | 73 | 178 | 0.0 | 0.0 | 0.00 | 0.00 | 0.00 | 41 | 1014.2 |
| 20260505202032 | 73 | 157 | 0.0 | 0.0 | 0.00 | 0.00 | 0.00 | 41 | 1014.2 |
| 20260505201933 | 74 | 152 | 0.0 | 0.0 | 0.00 | 0.00 | 0.00 | 42 | 1014.1 |
| 20260505201832 | 74 | 236 | 0.0 | 0.0 | 0.00 | 0.00 | 0.00 | 42 | 1014.2 |
| 20260505201725 | 74 | 159 | 0.0 | 0.0 | 0.00 | 0.00 | 0.00 | 43 | 1014.3 |
| 20260505201626 | 74 | 99 | 0.0 | 0.0 | 0.00 | 0.00 | 0.00 | 44 | 1014.3 |
| 20260505201526 | 74 | 180 | 0.0 | 0.0 | 0.00 | 0.00 | 0.00 | 42 | 1014.3 |
| 20260505201427 | 73 | 133 | 0.0 | 0.0 | 0.00 | 0.00 | 0.00 | 43 | 1014.4 |
| 20260505201327 | 73 | 143 | 0.0 | 0.0 | 0.00 | 0.00 | 0.00 | 43 | 1014.5 |
| 20260505201224 | 73 | 150 | 0.0 | 0.0 | 0.00 | 0.00 | 0.00 | 42 | 1014.5 |
| 20260505201123 | 73 | 208 | 0.0 | 0.0 | 0.00 | 0.00 | 0.00 | 43 | 1014.4 |
| 20260505201024 | 73 | 198 | 0.0 | 0.0 | 0.00 | 0.00 | 0.00 | 41 | 1014.4 |
| 20260505200923 | 73 | 171 | 0.0 | 0.0 | 0.00 | 0.00 | 0.00 | 42 | 1014.5 |
| 20260505200820 | 73 | 205 | 0.0 | 0.0 | 0.00 | 0.00 | 0.00 | 42 | 1014.3 |
| 20260505200712 | 73 | 157 | 0.0 | 0.0 | 0.00 | 0.00 | 0.00 | 44 | 1014.3 |
| 20260505200611 | 73 | 136 | 0.0 | 0.0 | 0.00 | 0.00 | 0.00 | 43 | 1014.2 |
| 20260505200512 | 73 | 153 | 0.0 | 0.0 | 0.00 | 0.00 | 0.00 | 44 | 1014.4 |
| 20260505200413 | 73 | 178 | 0.0 | 0.0 | 0.00 | 0.00 | 0.00 | 46 | 1014.4 |
| 20260505200310 | 73 | 131 | 0.0 | 0.0 | 0.00 | 0.00 | 0.00 | 45 | 1014.5 |
| 20260505200205 | 73 | 181 | 0.0 | 0.0 | 0.00 | 0.00 | 0.00 | 45 | 1014.5 |
| 20260505200105 | 73 | 195 | 0.0 | 0.0 | 0.00 | 0.00 | 0.00 | 45 | 1014.6 |
| 20260505200005 | 73 | 161 | 0.0 | 0.0 | 0.00 | 0.00 | 0.00 | 44 | 1014.6 |
| 20260505195904 | 73 | 189 | 0.0 | 0.0 | 0.00 | 0.00 | 0.00 | 45 | 1014.6 |
| 20260505195805 | 73 | 182 | 0.0 | 0.0 | 0.00 | 0.00 | 0.00 | 45 | 1014.7 |
| 20260505195700 | 73 | 205 | 0.0 | 0.0 | 0.00 | 0.00 | 0.00 | 47 | 1014.6 |
| 20260505195558 | 73 | 146 | 0.0 | 0.0 | 0.00 | 0.00 | 0.00 | 46 | 1014.6 |
| 20260505195459 | 73 | 136 | 0.0 | 0.0 | 0.00 | 0.00 | 0.00 | 45 | 1014.6 |
| 20260505195359 | 73 | 184 | 0.0 | 0.0 | 0.00 | 0.00 | 0.00 | 46 | 1014.6 |
| 20260505195258 | 73 | 177 | 0.0 | 0.0 | 0.00 | 0.00 | 0.00 | 46 | 1014.6 |
| 20260505195150 | 73 | 132 | 0.0 | 0.0 | 0.00 | 0.00 | 0.00 | 46 | 1014.5 |
| 20260505195052 | 73 | 128 | 0.0 | 0.0 | 0.00 | 0.00 | 0.00 | 45 | 1014.7 |
| 20260505194950 | 73 | 240 | 0.0 | 0.0 | 0.00 | 0.00 | 0.00 | 46 | 1014.7 |
| 20260505194850 | 73 | 169 | 0.0 | 0.0 | 0.00 | 0.00 | 0.00 | 45 | 1014.6 |
| 20260505194749 | 73 | 160 | 0.0 | 0.0 | 0.00 | 0.00 | 0.00 | 46 | 1014.7 |
| 20260505194645 | 73 | 130 | 0.0 | 0.0 | 0.00 | 0.00 | 0.00 | 46 | 1014.6 |
| 20260505194543 | 73 | 182 | 0.0 | 0.0 | 0.00 | 0.00 | 0.00 | 45 | 1014.5 |
| 20260505194442 | 73 | 161 | 0.0 | 0.0 | 0.00 | 0.00 | 0.00 | 45 | 1014.6 |
| 20260505194344 | 73 | 111 | 0.0 | 0.0 | 0.00 | 0.00 | 0.00 | 44 | 1014.6 |
| 20260505194243 | 73 | 198 | 0.0 | 0.0 | 0.00 | 0.00 | 0.00 | 44 | 1014.6 |
| 20260505194135 | 74 | 275 | 0.0 | 0.0 | 0.00 | 0.00 | 0.00 | 45 | 1014.8 |
| 20260505194037 | 74 | 150 | 0.0 | 0.0 | 0.00 | 0.00 | 0.00 | 45 | 1014.5 |
| 20260505193937 | 74 | 178 | 0.0 | 0.0 | 0.00 | 0.00 | 0.00 | 43 | 1014.6 |
| 20260505193835 | 74 | 177 | 0.0 | 0.0 | 0.00 | 0.00 | 0.00 | 45 | 1014.6 |
| 20260505193737 | 74 | 171 | 0.0 | 0.0 | 0.00 | 0.00 | 0.00 | 45 | 1014.6 |
| 20260505193629 | 74 | 107 | 0.0 | 0.0 | 0.00 | 0.00 | 0.00 | 44 | 1014.5 |
| 20260505193531 | 74 | 123 | 0.0 | 0.0 | 0.00 | 0.00 | 0.00 | 45 | 1014.6 |
| 20260505193430 | 74 | 126 | 0.0 | 0.0 | 0.00 | 0.00 | 0.00 | 45 | 1014.8 |
| 20260505193329 | 74 | 134 | 0.0 | 0.0 | 0.00 | 0.00 | 0.00 | 46 | 1014.6 |
| 20260505193226 | 74 | 144 | 0.0 | 0.0 | 0.00 | 0.00 | 0.00 | 46 | 1014.7 |
| 20260505193122 | 74 | 196 | 0.0 | 0.0 | 0.00 | 0.00 | 0.00 | 45 | 1014.7 |
| 20260505193023 | 74 | 136 | 0.0 | 0.0 | 0.00 | 0.00 | 0.00 | 45 | 1014.8 |
| 20260505192923 | 74 | 153 | 0.0 | 0.0 | 0.00 | 0.00 | 0.00 | 45 | 1014.7 |
| 20260505192823 | 74 | 170 | 0.0 | 0.0 | 0.00 | 0.00 | 0.00 | 45 | 1014.8 |
| 20260505192721 | 74 | 121 | 0.0 | 0.0 | 0.00 | 0.00 | 0.00 | 46 | 1014.9 |
| 20260505192615 | 74 | 109 | 0.0 | 0.0 | 0.00 | 0.00 | 0.00 | 45 | 1014.8 |
| 20260505192514 | 74 | 227 | 0.0 | 0.0 | 0.00 | 0.00 | 0.00 | 45 | 1014.8 |
| 20260505192415 | 73 | 153 | 0.0 | 0.0 | 0.00 | 0.00 | 0.00 | 45 | 1014.8 |
| 20260505192315 | 73 | 144 | 0.0 | 0.0 | 0.00 | 0.00 | 0.00 | 46 | 1014.7 |
| 20260505192215 | 73 | 126 | 0.0 | 0.0 | 0.00 | 0.00 | 0.00 | 45 | 1014.8 |
| 20260505192104 | 73 | 133 | 0.0 | 0.0 | 0.00 | 0.00 | 0.00 | 44 | 1014.8 |
| 20260505192004 | 73 | 124 | 0.0 | 0.0 | 0.00 | 0.00 | 0.00 | 44 | 1014.7 |
| 20260505191904 | 73 | 165 | 0.0 | 0.0 | 0.00 | 0.00 | 0.00 | 43 | 1014.8 |
| 20260505191804 | 73 | 159 | 0.0 | 0.0 | 0.00 | 0.00 | 0.00 | 43 | 1014.8 |
| 20260505191705 | 73 | 157 | 0.0 | 0.0 | 0.00 | 0.00 | 0.00 | 44 | 1014.9 |
| 20260505191558 | 73 | 181 | 0.0 | 0.0 | 0.00 | 0.00 | 0.00 | 47 | 1014.8 |
| 20260505191459 | 73 | 146 | 0.0 | 0.0 | 0.00 | 0.00 | 0.00 | 44 | 1014.9 |
| 20260505191359 | 73 | 125 | 0.0 | 0.0 | 0.00 | 0.00 | 0.00 | 44 | 1015.0 |
| 20260505191259 | 73 | 182 | 0.0 | 0.0 | 0.00 | 0.00 | 0.00 | 43 | 1014.9 |
| 20260505191158 | 74 | 137 | 0.0 | 0.0 | 0.00 | 0.00 | 0.00 | 44 | 1014.9 |
| 20260505191056 | 74 | 141 | 0.0 | 0.0 | 0.00 | 0.00 | 0.00 | 45 | 1015.0 |
| 20260505190956 | 74 | 203 | 0.0 | 0.0 | 0.00 | 0.00 | 0.00 | 45 | 1015.0 |
| 20260505190856 | 74 | 165 | 0.0 | 0.0 | 0.00 | 0.00 | 0.00 | 45 | 1015.1 |
| 20260505190753 | 74 | 134 | 0.0 | 0.0 | 0.00 | 0.00 | 0.00 | 46 | 1015.0 |
| 20260505190653 | 74 | 134 | 0.0 | 0.0 | 0.00 | 0.00 | 0.00 | 46 | 1015.1 |
| 20260505190546 | 74 | 104 | 0.0 | 0.0 | 0.00 | 0.00 | 0.00 | 45 | 1015.1 |
| 20260505190346 | 73 | 125 | 0.0 | 0.0 | 0.00 | 0.00 | 0.00 | 44 | 1015.3 |
| 20260505190245 | 73 | 130 | 0.0 | 0.0 | 0.00 | 0.00 | 0.00 | 44 | 1015.3 |
| 20260505190142 | 73 | 133 | 0.0 | 0.0 | 0.00 | 0.00 | 0.00 | 45 | 1015.3 |
| 20260505190037 | 73 | 111 | 0.0 | 0.0 | 0.00 | 0.00 | 0.00 | 44 | 1015.4 |
| 20260505185937 | 73 | 158 | 0.0 | 0.0 | 0.00 | 0.00 | 0.00 | 45 | 1015.1 |
| 20260505185837 | 73 | 136 | 0.0 | 0.0 | 0.00 | 0.00 | 0.00 | 46 | 1015.3 |
| 20260505185736 | 73 | 150 | 0.0 | 0.0 | 0.00 | 0.00 | 0.00 | 45 | 1015.3 |
| 20260505185636 | 73 | 123 | 0.0 | 0.0 | 0.00 | 0.00 | 0.00 | 47 | 1015.3 |
| 20260505185531 | 73 | 154 | 0.0 | 0.0 | 0.00 | 0.00 | 0.00 | 47 | 1015.4 |
| 20260505185433 | 73 | 169 | 0.0 | 0.0 | 0.00 | 0.00 | 0.00 | 47 | 1015.5 |
| 20260505185333 | 73 | 167 | 0.0 | 0.0 | 0.00 | 0.00 | 0.00 | 45 | 1015.3 |
| 20260505185233 | 73 | 159 | 0.0 | 0.0 | 0.00 | 0.00 | 0.00 | 45 | 1015.5 |
| 20260505185131 | 73 | 166 | 0.0 | 0.0 | 0.00 | 0.00 | 0.00 | 45 | 1015.5 |
| 20260505185025 | 74 | 143 | 0.0 | 0.0 | 0.00 | 0.00 | 0.00 | 45 | 1015.4 |
| 20260505184926 | 74 | 168 | 0.0 | 0.0 | 0.00 | 0.00 | 0.00 | 45 | 1015.4 |
| 20260505184826 | 74 | 187 | 0.0 | 0.0 | 0.00 | 0.00 | 0.00 | 44 | 1015.5 |
| 20260505184725 | 74 | 167 | 0.0 | 0.0 | 0.00 | 0.00 | 0.00 | 44 | 1015.5 |
| 20260505184627 | 74 | 266 | 0.0 | 0.0 | 0.00 | 0.00 | 0.00 | 44 | 1015.6 |
| 20260505184526 | 74 | 267 | 0.0 | 0.0 | 0.00 | 0.00 | 0.00 | 43 | 1015.6 |
| 20260505184426 | 74 | 133 | 0.0 | 0.0 | 0.00 | 0.00 | 0.00 | 44 | 1015.5 |
| 20260505184327 | 74 | 179 | 0.0 | 0.0 | 0.00 | 0.00 | 0.00 | 45 | 1015.5 |
| 20260505184223 | 74 | 170 | 0.0 | 0.0 | 0.00 | 0.00 | 0.00 | 47 | 1015.4 |
| 20260505184124 | 74 | 114 | 0.0 | 0.0 | 0.00 | 0.00 | 0.00 | 45 | 1015.4 |
| 20260505184024 | 74 | 136 | 0.0 | 0.0 | 0.00 | 0.00 | 0.00 | 46 | 1015.5 |
| 20260505183924 | 74 | 118 | 0.0 | 0.0 | 0.00 | 0.00 | 0.00 | 44 | 1015.5 |
| 20260505183825 | 74 | 221 | 0.0 | 0.0 | 0.00 | 0.00 | 0.00 | 46 | 1015.6 |
| 20260505183722 | 74 | 140 | 0.0 | 0.0 | 0.00 | 0.00 | 0.00 | 45 | 1015.6 |
| 20260505183621 | 74 | 184 | 0.0 | 0.0 | 0.00 | 0.00 | 0.00 | 45 | 1015.6 |
| 20260505183521 | 74 | 56 | 0.0 | 0.0 | 0.00 | 0.00 | 0.00 | 48 | 1015.6 |
| 20260505183422 | 74 | 229 | 0.0 | 0.0 | 0.00 | 0.00 | 0.00 | 45 | 1015.5 |
| 20260505183323 | 74 | 57 | 0.0 | 0.0 | 0.00 | 0.00 | 0.00 | 45 | 1015.6 |
| 20260505183221 | 74 | 162 | 0.0 | 0.0 | 0.00 | 0.00 | 0.00 | 46 | 1015.6 |
| 20260505183123 | 74 | 191 | 0.0 | 0.0 | 0.00 | 0.00 | 0.00 | 47 | 1015.6 |
| 20260505183023 | 74 | 139 | 0.0 | 0.0 | 0.00 | 0.00 | 0.00 | 49 | 1015.6 |
| 20260505182924 | 73 | 130 | 0.0 | 0.0 | 0.00 | 0.00 | 0.00 | 47 | 1015.7 |
| 20260505182823 | 73 | 149 | 0.0 | 0.0 | 0.00 | 0.00 | 0.00 | 46 | 1015.7 |
| 20260505182721 | 73 | 186 | 0.0 | 0.0 | 0.00 | 0.00 | 0.00 | 48 | 1015.7 |
| 20260505182622 | 73 | 146 | 0.0 | 0.0 | 0.00 | 0.00 | 0.00 | 49 | 1015.8 |
| 20260505182521 | 73 | 89 | 0.0 | 0.0 | 0.00 | 0.00 | 0.00 | 48 | 1015.7 |
| 20260505182418 | 73 | 166 | 0.0 | 0.0 | 0.00 | 0.00 | 0.00 | 46 | 1015.8 |
| 20260505182318 | 73 | 195 | 0.0 | 0.0 | 0.00 | 0.00 | 0.00 | 46 | 1015.9 |
| 20260505182217 | 73 | 215 | 0.0 | 0.0 | 0.00 | 0.00 | 0.00 | 46 | 1015.8 |
| 20260505182117 | 73 | 159 | 0.0 | 0.0 | 0.00 | 0.00 | 0.00 | 46 | 1015.8 |
| 20260505182018 | 73 | 138 | 0.0 | 0.0 | 0.00 | 0.00 | 0.00 | 45 | 1015.7 |
| 20260505181918 | 73 | 139 | 0.0 | 0.0 | 0.00 | 0.00 | 0.00 | 48 | 1015.8 |
| 20260505181818 | 73 | 116 | 0.0 | 0.0 | 0.00 | 0.00 | 0.00 | 46 | 1015.8 |
| 20260505181718 | 73 | 150 | 0.0 | 0.0 | 0.00 | 0.00 | 0.00 | 45 | 1015.8 |
| 20260505181614 | 74 | 161 | 0.0 | 0.0 | 0.00 | 0.00 | 0.00 | 46 | 1015.9 |
| 20260505181513 | 74 | 163 | 0.0 | 0.0 | 0.00 | 0.00 | 0.00 | 47 | 1015.9 |
| 20260505181413 | 74 | 150 | 0.0 | 0.0 | 0.00 | 0.00 | 0.00 | 46 | 1015.9 |
| 20260505181311 | 74 | 194 | 0.0 | 0.0 | 0.00 | 0.00 | 0.00 | 45 | 1016.0 |
| 20260505181213 | 74 | 221 | 0.0 | 0.0 | 0.00 | 0.00 | 0.00 | 45 | 1015.9 |
| 20260505181106 | 74 | 107 | 0.0 | 0.0 | 0.00 | 0.00 | 0.00 | 45 | 1016.0 |
| 20260505181006 | 74 | 164 | 0.0 | 0.0 | 0.00 | 0.00 | 0.00 | 44 | 1016.0 |
| 20260505180906 | 74 | 137 | 0.0 | 0.0 | 0.00 | 0.00 | 0.00 | 47 | 1016.0 |
| 20260505180806 | 74 | 141 | 0.0 | 0.0 | 0.00 | 0.00 | 0.00 | 46 | 1016.1 |
| 20260505180707 | 74 | 130 | 0.0 | 0.0 | 0.00 | 0.00 | 0.00 | 44 | 1016.1 |
| 20260505180600 | 74 | 245 | 0.0 | 0.0 | 0.00 | 0.00 | 0.00 | 45 | 1016.2 |
| 20260505180501 | 74 | 140 | 0.0 | 0.0 | 0.00 | 0.00 | 0.00 | 45 | 1016.2 |
| 20260505180359 | 74 | 71 | 0.0 | 0.0 | 0.00 | 0.00 | 0.00 | 44 | 1016.2 |
| 20260505180301 | 74 | 242 | 0.0 | 0.0 | 0.00 | 0.00 | 0.00 | 44 | 1016.2 |
| 20260505180159 | 74 | 173 | 0.0 | 0.0 | 0.00 | 0.00 | 0.00 | 43 | 1016.2 |
| 20260505180100 | 74 | 114 | 0.0 | 0.0 | 0.00 | 0.00 | 0.00 | 43 | 1016.1 |
| 20260505175959 | 74 | 148 | 0.0 | 0.0 | 0.00 | 0.00 | 0.00 | 44 | 1016.2 |
| 20260505175900 | 74 | 134 | 0.0 | 0.0 | 0.00 | 0.00 | 0.00 | 43 | 1016.2 |
| 20260505175801 | 74 | 155 | 0.0 | 0.0 | 0.00 | 0.00 | 0.00 | 42 | 1016.1 |
| 20260505175700 | 74 | 194 | 0.0 | 0.0 | 0.00 | 0.00 | 0.00 | 42 | 1016.2 |
| 20260505175559 | 74 | 169 | 0.0 | 0.0 | 0.00 | 0.00 | 0.00 | 43 | 1016.2 |
| 20260505175500 | 74 | 144 | 0.0 | 0.0 | 0.00 | 0.00 | 0.00 | 44 | 1016.2 |
| 20260505175400 | 74 | 273 | 0.0 | 0.0 | 0.00 | 0.00 | 0.00 | 43 | 1016.0 |
| 20260505175259 | 74 | 102 | 0.0 | 0.0 | 0.00 | 0.00 | 0.00 | 43 | 1016.1 |
| 20260505175200 | 74 | 160 | 0.0 | 0.0 | 0.00 | 0.00 | 0.00 | 46 | 1016.1 |
| 20260505175100 | 74 | 150 | 0.0 | 0.0 | 0.00 | 0.00 | 0.00 | 45 | 1016.2 |
| 20260505174959 | 74 | 159 | 0.0 | 0.0 | 0.00 | 0.00 | 0.00 | 43 | 1016.1 |
| 20260505174853 | 74 | 180 | 0.0 | 0.0 | 0.00 | 0.00 | 0.00 | 44 | 1016.2 |
| 20260505174753 | 74 | 151 | 0.0 | 0.0 | 0.00 | 0.00 | 0.00 | 42 | 1016.2 |
| 20260505174653 | 74 | 153 | 0.0 | 0.0 | 0.00 | 0.00 | 0.00 | 43 | 1016.1 |
| 20260505174552 | 74 | 154 | 0.0 | 0.0 | 0.00 | 0.00 | 0.00 | 43 | 1016.1 |
| 20260505174452 | 74 | 229 | 0.0 | 0.0 | 0.00 | 0.00 | 0.00 | 43 | 1016.2 |
| 20260505174347 | 74 | 244 | 0.0 | 0.0 | 0.00 | 0.00 | 0.00 | 44 | 1016.1 |
| 20260505174246 | 73 | 130 | 0.0 | 0.0 | 0.00 | 0.00 | 0.00 | 44 | 1016.1 |
| 20260505174147 | 73 | 125 | 0.0 | 0.0 | 0.00 | 0.00 | 0.00 | 46 | 1015.9 |
| 20260505174045 | 73 | 146 | 0.0 | 0.0 | 0.00 | 0.00 | 0.00 | 46 | 1016.0 |
| 20260505173947 | 73 | 152 | 0.0 | 0.0 | 0.00 | 0.00 | 0.00 | 44 | 1015.9 |
| 20260505173841 | 73 | 128 | 0.0 | 0.0 | 0.00 | 0.00 | 0.00 | 45 | 1015.9 |
| 20260505173739 | 73 | 173 | 0.0 | 0.0 | 0.00 | 0.00 | 0.00 | 44 | 1016.0 |
| 20260505173637 | 73 | 151 | 0.0 | 0.0 | 0.00 | 0.00 | 0.00 | 44 | 1016.0 |
| 20260505173538 | 73 | 157 | 0.0 | 0.0 | 0.00 | 0.00 | 0.00 | 44 | 1016.0 |
| 20260505173437 | 73 | 149 | 0.0 | 0.0 | 0.00 | 0.00 | 0.00 | 44 | 1016.0 |
| 20260505173337 | 73 | 136 | 0.0 | 0.0 | 0.00 | 0.00 | 0.00 | 45 | 1016.0 |
| 20260505173239 | 73 | 175 | 0.0 | 0.0 | 0.00 | 0.00 | 0.00 | 44 | 1016.0 |
| 20260505173135 | 73 | 241 | 0.0 | 0.0 | 0.00 | 0.00 | 0.00 | 44 | 1016.0 |
| 20260505173037 | 73 | 150 | 0.0 | 0.0 | 0.00 | 0.00 | 0.00 | 44 | 1016.0 |
| 20260505172936 | 73 | 156 | 0.0 | 0.0 | 0.00 | 0.00 | 0.00 | 44 | 1016.1 |
| 20260505172833 | 73 | 149 | 0.0 | 0.0 | 0.00 | 0.00 | 0.00 | 45 | 1016.0 |
| 20260505172734 | 73 | 134 | 0.0 | 0.0 | 0.00 | 0.00 | 0.00 | 44 | 1016.1 |
| 20260505172634 | 73 | 236 | 0.0 | 0.0 | 0.00 | 0.00 | 0.00 | 47 | 1016.0 |
| 20260505172534 | 73 | 140 | 0.0 | 0.0 | 0.00 | 0.00 | 0.00 | 43 | 1016.0 |
| 20260505172433 | 73 | 149 | 0.0 | 0.0 | 0.00 | 0.00 | 0.00 | 45 | 1015.8 |
| 20260505172334 | 73 | 143 | 0.0 | 0.0 | 0.00 | 0.00 | 0.00 | 45 | 1016.0 |
| 20260505172233 | 73 | 126 | 0.0 | 0.0 | 0.00 | 0.00 | 0.00 | 45 | 1015.9 |
| 20260505172134 | 73 | 148 | 0.0 | 0.0 | 0.00 | 0.00 | 0.00 | 45 | 1015.9 |
| 20260505172031 | 73 | 126 | 0.0 | 0.0 | 0.00 | 0.00 | 0.00 | 45 | 1015.9 |
| 20260505171932 | 73 | 141 | 0.0 | 0.0 | 0.00 | 0.00 | 0.00 | 44 | 1015.9 |
| 20260505171832 | 74 | 146 | 0.0 | 0.0 | 0.00 | 0.00 | 0.00 | 45 | 1015.9 |
| 20260505171733 | 74 | 134 | 0.0 | 0.0 | 0.00 | 0.00 | 0.00 | 47 | 1016.0 |
| 20260505171627 | 74 | 137 | 0.0 | 0.0 | 0.00 | 0.00 | 0.00 | 47 | 1016.0 |
| 20260505171526 | 74 | 176 | 0.0 | 0.0 | 0.00 | 0.00 | 0.00 | 47 | 1016.0 |
| 20260505171426 | 74 | 141 | 0.0 | 0.0 | 0.00 | 0.00 | 0.00 | 46 | 1016.0 |
| 20260505171327 | 73 | 115 | 0.0 | 0.0 | 0.00 | 0.00 | 0.00 | 49 | 1016.0 |
| 20260505171226 | 73 | 178 | 0.0 | 0.0 | 0.00 | 0.00 | 0.00 | 47 | 1016.1 |
| 20260505171122 | 73 | 97 | 0.0 | 0.0 | 0.00 | 0.00 | 0.00 | 51 | 1016.0 |
| 20260505171020 | 73 | 137 | 0.0 | 0.0 | 0.00 | 0.00 | 0.00 | 49 | 1016.0 |
| 20260505170920 | 73 | 167 | 0.0 | 0.0 | 0.00 | 0.00 | 0.00 | 48 | 1016.0 |
| 20260505170820 | 73 | 163 | 0.0 | 0.0 | 0.00 | 0.00 | 0.00 | 47 | 1016.0 |
| 20260505170720 | 73 | 154 | 0.0 | 0.0 | 0.00 | 0.00 | 0.00 | 47 | 1016.0 |
| 20260505170621 | 73 | 140 | 0.0 | 0.0 | 0.00 | 0.00 | 0.00 | 48 | 1016.1 |
| 20260505170519 | 73 | 157 | 0.0 | 0.0 | 0.00 | 0.00 | 0.00 | 49 | 1016.2 |
| 20260505170419 | 73 | 126 | 0.0 | 0.0 | 0.00 | 0.00 | 0.00 | 49 | 1016.2 |
| 20260505170319 | 73 | 228 | 0.0 | 0.0 | 0.00 | 0.00 | 0.00 | 48 | 1016.1 |
| 20260505170217 | 73 | 117 | 0.0 | 0.0 | 0.00 | 0.00 | 0.00 | 49 | 1016.1 |
| 20260505170118 | 73 | 147 | 0.0 | 0.0 | 0.00 | 0.00 | 0.00 | 49 | 1016.2 |
| 20260505170016 | 73 | 157 | 0.0 | 0.0 | 0.00 | 0.00 | 0.00 | 50 | 1016.2 |
| 20260505165913 | 73 | 144 | 0.0 | 0.0 | 0.00 | 0.00 | 0.00 | 48 | 1016.2 |
| 20260505165813 | 73 | 135 | 0.0 | 0.0 | 0.00 | 0.00 | 0.00 | 51 | 1016.2 |
| 20260505165713 | 73 | 196 | 0.0 | 0.0 | 0.00 | 0.00 | 0.00 | 48 | 1016.2 |
| 20260505165614 | 73 | 196 | 0.0 | 0.0 | 0.00 | 0.00 | 0.00 | 48 | 1016.2 |
| 20260505165513 | 73 | 192 | 0.0 | 0.0 | 0.00 | 0.00 | 0.00 | 49 | 1016.2 |
| 20260505165415 | 73 | 157 | 0.0 | 0.0 | 0.00 | 0.00 | 0.00 | 49 | 1016.2 |
| 20260505165313 | 73 | 159 | 0.0 | 0.0 | 0.00 | 0.00 | 0.00 | 48 | 1016.3 |
| 20260505165214 | 73 | 132 | 0.0 | 0.0 | 0.00 | 0.00 | 0.00 | 50 | 1016.3 |
| 20260505165113 | 73 | 124 | 0.0 | 0.0 | 0.00 | 0.00 | 0.00 | 49 | 1016.3 |
| 20260505165014 | 73 | 198 | 0.0 | 0.0 | 0.00 | 0.00 | 0.00 | 48 | 1016.3 |
| 20260505164903 | 72 | 298 | 0.0 | 0.0 | 0.00 | 0.00 | 0.00 | 49 | 1016.3 |
| 20260505164804 | 72 | 163 | 0.0 | 0.0 | 0.00 | 0.00 | 0.00 | 49 | 1016.3 |
| 20260505164705 | 72 | 160 | 0.0 | 0.0 | 0.00 | 0.00 | 0.00 | 49 | 1016.3 |
| 20260505164603 | 72 | 161 | 0.0 | 0.0 | 0.00 | 0.00 | 0.00 | 51 | 1016.3 |
| 20260505164504 | 72 | 150 | 0.0 | 0.0 | 0.00 | 0.00 | 0.00 | 52 | 1016.3 |
| 20260505164404 | 72 | 102 | 0.0 | 0.0 | 0.00 | 0.00 | 0.00 | 50 | 1016.4 |
| 20260505164304 | 72 | 121 | 0.0 | 0.0 | 0.00 | 0.00 | 0.00 | 51 | 1016.4 |
| 20260505164205 | 72 | 203 | 0.0 | 0.0 | 0.00 | 0.00 | 0.00 | 50 | 1016.5 |
| 20260505164104 | 72 | 152 | 0.0 | 0.0 | 0.00 | 0.00 | 0.00 | 51 | 1016.5 |
| 20260505164005 | 72 | 120 | 0.0 | 0.0 | 0.00 | 0.00 | 0.00 | 48 | 1016.5 |
| 20260505163904 | 72 | 144 | 0.0 | 0.0 | 0.00 | 0.00 | 0.00 | 50 | 1016.5 |
| 20260505163805 | 72 | 164 | 0.0 | 0.0 | 0.00 | 0.00 | 0.00 | 50 | 1016.5 |
| 20260505163605 | 72 | 194 | 0.0 | 0.0 | 0.00 | 0.00 | 0.00 | 53 | 1016.6 |
| 20260505163504 | 72 | 195 | 0.0 | 0.0 | 0.00 | 0.00 | 0.00 | 51 | 1016.6 |
| 20260505163403 | 72 | 326 | 0.0 | 0.0 | 0.00 | 0.00 | 0.00 | 52 | 1016.7 |
| 20260505163304 | 72 | 163 | 0.0 | 0.0 | 0.00 | 0.00 | 0.00 | 49 | 1016.6 |
| 20260505163201 | 72 | 140 | 0.0 | 0.0 | 0.00 | 0.00 | 0.00 | 49 | 1016.6 |
| 20260505163102 | 72 | 134 | 0.0 | 0.0 | 0.00 | 0.00 | 0.00 | 49 | 1016.7 |
| 20260505163002 | 72 | 140 | 0.0 | 0.0 | 0.00 | 0.00 | 0.00 | 50 | 1016.6 |
| 20260505162901 | 72 | 176 | 0.0 | 0.0 | 0.00 | 0.00 | 0.00 | 49 | 1016.7 |
| 20260505162801 | 72 | 141 | 0.0 | 0.0 | 0.00 | 0.00 | 0.00 | 52 | 1016.7 |
| 20260505162701 | 72 | 167 | 0.0 | 0.0 | 0.00 | 0.00 | 0.00 | 50 | 1016.6 |
| 20260505162601 | 72 | 171 | 0.0 | 0.0 | 0.00 | 0.00 | 0.00 | 52 | 1016.6 |
| 20260505162501 | 72 | 248 | 0.0 | 0.0 | 0.00 | 0.00 | 0.00 | 53 | 1016.7 |
| 20260505162401 | 72 | 165 | 0.0 | 0.0 | 0.00 | 0.00 | 0.00 | 52 | 1016.6 |
| 20260505162301 | 72 | 182 | 0.0 | 0.0 | 0.00 | 0.00 | 0.00 | 53 | 1016.6 |
| 20260505162201 | 72 | 146 | 0.0 | 0.0 | 0.00 | 0.00 | 0.00 | 51 | 1016.7 |
| 20260505162102 | 72 | 145 | 0.0 | 0.0 | 0.00 | 0.00 | 0.00 | 52 | 1016.7 |
| 20260505162001 | 72 | 142 | 0.0 | 0.0 | 0.00 | 0.00 | 0.00 | 51 | 1016.7 |
| 20260505161902 | 72 | 217 | 0.0 | 0.0 | 0.00 | 0.00 | 0.00 | 52 | 1016.7 |
| 20260505161801 | 72 | 156 | 0.0 | 0.0 | 0.00 | 0.00 | 0.00 | 51 | 1016.7 |
| 20260505161701 | 72 | 177 | 0.0 | 0.0 | 0.00 | 0.00 | 0.00 | 50 | 1016.7 |
| 20260505161602 | 72 | 139 | 0.0 | 0.0 | 0.00 | 0.00 | 0.00 | 50 | 1016.6 |
| 20260505161501 | 72 | 163 | 0.0 | 0.0 | 0.00 | 0.00 | 0.00 | 50 | 1016.7 |
| 20260505161401 | 72 | 184 | 0.0 | 0.0 | 0.00 | 0.00 | 0.00 | 51 | 1016.7 |
| 20260505161302 | 72 | 272 | 0.0 | 0.0 | 0.00 | 0.00 | 0.00 | 51 | 1016.6 |
| 20260505161202 | 72 | 138 | 0.0 | 0.0 | 0.00 | 0.00 | 0.00 | 51 | 1016.6 |
| 20260505161102 | 71 | 145 | 0.0 | 0.0 | 0.00 | 0.00 | 0.00 | 51 | 1016.6 |
| 20260505161000 | 71 | 138 | 0.0 | 0.0 | 0.00 | 0.00 | 0.00 | 52 | 1016.7 |
| 20260505160900 | 71 | 155 | 0.0 | 0.0 | 0.00 | 0.00 | 0.00 | 52 | 1016.6 |
| 20260505160800 | 71 | 184 | 0.0 | 0.0 | 0.00 | 0.00 | 0.00 | 52 | 1016.7 |
| 20260505160659 | 71 | 194 | 0.0 | 0.0 | 0.00 | 0.00 | 0.00 | 53 | 1016.7 |
| 20260505160559 | 71 | 172 | 0.0 | 0.0 | 0.00 | 0.00 | 0.00 | 53 | 1016.7 |
| 20260505160459 | 71 | 95 | 0.0 | 0.0 | 0.00 | 0.00 | 0.00 | 53 | 1016.9 |
| 20260505160401 | 71 | 44 | 0.0 | 0.0 | 0.00 | 0.00 | 0.00 | 52 | 1016.9 |
| 20260505160257 | 71 | 162 | 0.0 | 0.0 | 0.00 | 0.00 | 0.00 | 53 | 1016.9 |
| 20260505160158 | 71 | 162 | 0.0 | 0.0 | 0.00 | 0.00 | 0.00 | 53 | 1016.9 |
| 20260505153357 | 71 | 172 | 0.0 | 0.0 | 0.00 | 0.00 | 0.00 | 51 | 1016.7 |
| 20260505153258 | 71 | 154 | 0.0 | 0.0 | 0.00 | 0.00 | 0.00 | 53 | 1016.9 |
| 20260505153157 | 71 | 150 | 0.0 | 0.0 | 0.00 | 0.00 | 0.00 | 52 | 1016.7 |
| 20260505153059 | 71 | 148 | 0.0 | 0.0 | 0.00 | 0.00 | 0.00 | 51 | 1016.6 |
| 20260505152954 | 71 | 168 | 0.0 | 0.0 | 0.00 | 0.00 | 0.00 | 51 | 1016.7 |
| 20260505152853 | 71 | 224 | 0.0 | 0.0 | 0.00 | 0.00 | 0.00 | 52 | 1016.7 |
| 20260505152754 | 70 | 145 | 0.0 | 0.0 | 0.00 | 0.00 | 0.00 | 53 | 1016.7 |
| 20260505152654 | 70 | 123 | 0.0 | 0.0 | 0.00 | 0.00 | 0.00 | 53 | 1016.6 |
| 20260505152554 | 70 | 173 | 0.0 | 0.0 | 0.00 | 0.00 | 0.00 | 51 | 1016.7 |
| 20260505152453 | 70 | 157 | 0.0 | 0.0 | 0.00 | 0.00 | 0.00 | 50 | 1016.7 |
| 20260505152355 | 70 | 180 | 0.0 | 0.0 | 0.00 | 0.00 | 0.00 | 51 | 1016.7 |
| 20260505152254 | 70 | 129 | 0.0 | 0.0 | 0.00 | 0.00 | 0.00 | 50 | 1016.7 |